| time (UTC) | temp C | wind direction | speed KPH | gust KPH | rain 1hr cm | rain 24hr cm | rain mn cm | humidity % | barometer mb |
| 20260905173059 | 33 | 313 | 0.0 | 0.0 | 0.00 | 0.00 | 0.00 | 65 | 1012.9 |
| 20260905172902 | 33 | 313 | 0.0 | 0.0 | 0.00 | 0.00 | 0.00 | 64 | 1012.9 |
| 20260905172800 | 33 | 313 | 0.0 | 0.0 | 0.00 | 0.00 | 0.00 | 63 | 1013.0 |
| 20260905172659 | 33 | 313 | 0.0 | 0.0 | 0.00 | 0.00 | 0.00 | 63 | 1012.9 |
| 20260905172600 | 33 | 355 | 0.0 | 0.0 | 0.00 | 0.00 | 0.00 | 63 | 1013.0 |
| 20260905172503 | 33 | 340 | 0.0 | 0.0 | 0.00 | 0.00 | 0.00 | 63 | 1013.0 |
| 20260905172400 | 33 | 340 | 0.0 | 0.0 | 0.00 | 0.00 | 0.00 | 64 | 1013.0 |
| 20260905172200 | 32 | 340 | 0.0 | 1.6 | 0.00 | 0.00 | 0.00 | 64 | 1013.1 |
| 20260905172000 | 32 | 336 | 0.0 | 1.6 | 0.00 | 0.00 | 0.00 | 66 | 1013.1 |
| 20260905171900 | 32 | 336 | 0.0 | 1.6 | 0.00 | 0.00 | 0.00 | 65 | 1013.0 |
| 20260905171800 | 32 | 336 | 0.0 | 1.6 | 0.00 | 0.00 | 0.00 | 65 | 1013.1 |
| 20260905171702 | 32 | 336 | 0.0 | 1.6 | 0.00 | 0.00 | 0.00 | 66 | 1013.0 |
| 20260905171559 | 32 | 306 | 0.0 | 1.6 | 0.00 | 0.00 | 0.00 | 65 | 1013.1 |
| 20260905171500 | 32 | 306 | 0.0 | 1.6 | 0.00 | 0.00 | 0.00 | 65 | 1013.1 |
| 20260905171004 | 32 | 115 | 0.0 | 14.5 | 0.00 | 0.00 | 0.00 | 64 | 1013.1 |
| 20260905170501 | 32 | 153 | 0.0 | 14.5 | 0.00 | 0.00 | 0.00 | 65 | 1013.2 |
| 20260905170300 | 32 | 157 | 0.0 | 14.5 | 0.00 | 0.00 | 0.00 | 66 | 1013.1 |
| 20260905165905 | 32 | 130 | 0.0 | 4.8 | 0.00 | 0.00 | 0.00 | 66 | 1013.3 |
| 20260905165501 | 32 | 134 | 0.0 | 12.9 | 0.00 | 0.00 | 0.00 | 66 | 1013.4 |
| 20260905165410 | 32 | 146 | 0.0 | 12.9 | 0.00 | 0.00 | 0.00 | 66 | 1013.4 |
| 20260905165306 | 32 | 138 | 0.0 | 12.9 | 0.00 | 0.00 | 0.00 | 66 | 1013.5 |
| 20260905165208 | 32 | 151 | 0.0 | 12.9 | 0.00 | 0.00 | 0.00 | 66 | 1013.4 |
| 20260905165105 | 32 | 119 | 0.0 | 12.9 | 0.00 | 0.00 | 0.00 | 66 | 1013.5 |
| 20260905164901 | 32 | 119 | 0.0 | 12.9 | 0.00 | 0.00 | 0.00 | 66 | 1013.5 |
| 20260905164812 | 32 | 142 | 0.0 | 12.9 | 0.00 | 0.00 | 0.00 | 66 | 1013.5 |
| 20260905164703 | 32 | 156 | 0.0 | 0.0 | 0.00 | 0.00 | 0.00 | 67 | 1013.5 |
| 20260905164606 | 32 | 155 | 0.0 | 0.0 | 0.00 | 0.00 | 0.00 | 67 | 1013.6 |
| 20260905164503 | 32 | 155 | 0.0 | 0.0 | 0.00 | 0.00 | 0.00 | 68 | 1013.7 |
| 20260905164419 | 32 | 155 | 0.0 | 0.0 | 0.00 | 0.00 | 0.00 | 68 | 1013.7 |
| 20260905164307 | 32 | 155 | 0.0 | 0.0 | 0.00 | 0.00 | 0.00 | 69 | 1013.6 |
| 20260905164204 | 31 | 188 | 0.0 | 0.0 | 0.00 | 0.00 | 0.00 | 68 | 1013.7 |
| 20260905164113 | 31 | 188 | 0.0 | 0.0 | 0.00 | 0.00 | 0.00 | 67 | 1013.7 |
| 20260905164008 | 31 | 188 | 0.0 | 0.0 | 0.00 | 0.00 | 0.00 | 67 | 1013.7 |
| 20260905163906 | 31 | 188 | 0.0 | 0.0 | 0.00 | 0.00 | 0.00 | 67 | 1013.8 |
| 20260905163801 | 31 | 186 | 0.0 | 12.9 | 0.00 | 0.00 | 0.00 | 67 | 1013.7 |
| 20260905163701 | 31 | 159 | 0.0 | 12.9 | 0.00 | 0.00 | 0.00 | 69 | 1013.7 |
| 20260905163609 | 31 | 159 | 0.0 | 12.9 | 0.00 | 0.00 | 0.00 | 68 | 1013.7 |
| 20260905163501 | 31 | 158 | 0.0 | 12.9 | 0.00 | 0.00 | 0.00 | 69 | 1013.7 |
| 20260905163401 | 31 | 158 | 0.0 | 12.9 | 0.00 | 0.00 | 0.00 | 69 | 1013.7 |
| 20260905163101 | 31 | 159 | 0.0 | 12.9 | 0.00 | 0.00 | 0.00 | 69 | 1013.6 |
| 20260905163006 | 31 | 157 | 0.0 | 12.9 | 0.00 | 0.00 | 0.00 | 68 | 1013.6 |
| 20260905162901 | 31 | 153 | 0.0 | 4.8 | 0.00 | 0.00 | 0.00 | 70 | 1013.6 |
| 20260905162807 | 31 | 169 | 0.0 | 4.8 | 0.00 | 0.00 | 0.00 | 69 | 1013.6 |
| 20260905162701 | 31 | 117 | 0.0 | 4.8 | 0.00 | 0.00 | 0.00 | 68 | 1013.6 |
| 20260905162601 | 31 | 148 | 0.0 | 4.8 | 0.00 | 0.00 | 0.00 | 69 | 1013.7 |
| 20260905162504 | 31 | 142 | 0.0 | 4.8 | 0.00 | 0.00 | 0.00 | 69 | 1013.6 |
| 20260905162402 | 31 | 130 | 0.0 | 4.8 | 0.00 | 0.00 | 0.00 | 69 | 1013.7 |
| 20260905162301 | 31 | 130 | 0.0 | 4.8 | 0.00 | 0.00 | 0.00 | 69 | 1013.7 |
| 20260905162201 | 31 | 178 | 0.0 | 4.8 | 0.00 | 0.00 | 0.00 | 69 | 1013.7 |
| 20260905162103 | 31 | 107 | 0.0 | 4.8 | 0.00 | 0.00 | 0.00 | 70 | 1013.6 |
| 20260905161901 | 31 | 57 | 0.0 | 8.0 | 0.00 | 0.00 | 0.00 | 71 | 1013.6 |
| 20260905161801 | 30 | 81 | 0.0 | 8.0 | 0.00 | 0.00 | 0.00 | 71 | 1013.5 |
| 20260905161601 | 30 | 140 | 0.0 | 8.0 | 0.00 | 0.00 | 0.00 | 70 | 1013.6 |
| 20260905161501 | 30 | 148 | 0.0 | 8.0 | 0.00 | 0.00 | 0.00 | 71 | 1013.5 |
| 20260905161403 | 30 | 126 | 0.0 | 12.9 | 0.00 | 0.00 | 0.00 | 71 | 1013.6 |
| 20260905161308 | 30 | 67 | 0.0 | 12.9 | 0.00 | 0.00 | 0.00 | 70 | 1013.6 |
| 20260905161201 | 30 | 66 | 0.0 | 12.9 | 0.00 | 0.00 | 0.00 | 70 | 1013.5 |
| 20260905161102 | 30 | 158 | 0.0 | 12.9 | 0.00 | 0.00 | 0.00 | 71 | 1013.5 |
| 20260905161003 | 30 | 141 | 0.0 | 12.9 | 0.00 | 0.00 | 0.00 | 70 | 1013.5 |
| 20260905160701 | 30 | 119 | 0.0 | 12.9 | 0.00 | 0.00 | 0.00 | 70 | 1013.5 |
| 20260905160604 | 30 | 153 | 0.0 | 12.9 | 0.00 | 0.00 | 0.00 | 70 | 1013.6 |
| 20260905160501 | 30 | 167 | 0.0 | 6.4 | 0.00 | 0.00 | 0.00 | 71 | 1013.5 |
| 20260905160301 | 30 | 151 | 0.0 | 3.2 | 0.00 | 0.00 | 0.00 | 71 | 1013.6 |
| 20260905160203 | 30 | 132 | 0.0 | 3.2 | 0.00 | 0.00 | 0.00 | 71 | 1013.6 |
| 20260905160101 | 30 | 132 | 0.0 | 9.7 | 0.00 | 0.00 | 0.00 | 71 | 1013.6 |
| 20260905160004 | 30 | 132 | 0.0 | 9.7 | 0.00 | 0.00 | 0.00 | 72 | 1013.6 |
| 20260905155902 | 30 | 67 | 0.0 | 9.7 | 0.00 | 0.00 | 0.00 | 72 | 1013.6 |
| 20260905155701 | 30 | 92 | 0.0 | 9.7 | 0.00 | 0.00 | 0.00 | 72 | 1013.5 |
| 20260905155401 | 30 | 99 | 1.6 | 11.3 | 0.00 | 0.00 | 0.00 | 71 | 1013.7 |
| 20260905155301 | 29 | 159 | 1.6 | 12.9 | 0.00 | 0.00 | 0.00 | 71 | 1013.7 |
| 20260905155201 | 29 | 146 | 1.6 | 12.9 | 0.00 | 0.00 | 0.00 | 73 | 1013.7 |
| 20260905155001 | 29 | 119 | 1.6 | 16.1 | 0.00 | 0.00 | 0.00 | 73 | 1013.7 |
| 20260905154901 | 29 | 188 | 1.6 | 16.1 | 0.00 | 0.00 | 0.00 | 72 | 1013.6 |
| 20260905154801 | 29 | 189 | 1.6 | 16.1 | 0.00 | 0.00 | 0.00 | 71 | 1013.7 |
| 20260905154703 | 29 | 145 | 1.6 | 16.1 | 0.00 | 0.00 | 0.00 | 71 | 1013.8 |
| 20260905154601 | 29 | 153 | 1.6 | 16.1 | 0.00 | 0.00 | 0.00 | 71 | 1013.8 |
| 20260905154502 | 29 | 169 | 1.6 | 16.1 | 0.00 | 0.00 | 0.00 | 70 | 1013.9 |
| 20260905154401 | 29 | 148 | 1.6 | 16.1 | 0.00 | 0.00 | 0.00 | 70 | 1013.9 |
| 20260905154303 | 29 | 156 | 1.6 | 16.1 | 0.00 | 0.00 | 0.00 | 70 | 1013.9 |
| 20260905154200 | 29 | 155 | 1.6 | 17.7 | 0.00 | 0.00 | 0.00 | 71 | 1013.9 |
| 20260905154102 | 29 | 129 | 1.6 | 17.7 | 0.00 | 0.00 | 0.00 | 71 | 1014.0 |
| 20260905153902 | 29 | 182 | 1.6 | 17.7 | 0.00 | 0.00 | 0.00 | 71 | 1014.1 |
| 20260905153601 | 29 | 160 | 1.6 | 17.7 | 0.00 | 0.00 | 0.00 | 73 | 1014.2 |
| 20260905153401 | 28 | 168 | 1.6 | 17.7 | 0.00 | 0.00 | 0.00 | 73 | 1014.2 |
| 20260905153201 | 28 | 172 | 0.0 | 17.7 | 0.00 | 0.00 | 0.00 | 74 | 1014.1 |
| 20260905153105 | 28 | 171 | 0.0 | 17.7 | 0.00 | 0.00 | 0.00 | 74 | 1014.0 |
| 20260905153002 | 28 | 171 | 0.0 | 17.7 | 0.00 | 0.00 | 0.00 | 74 | 1014.1 |
| 20260905152901 | 28 | 175 | 0.0 | 17.7 | 0.00 | 0.00 | 0.00 | 74 | 1014.0 |
| 20260905152801 | 28 | 177 | 0.0 | 17.7 | 0.00 | 0.00 | 0.00 | 74 | 1014.1 |
| 20260905152704 | 28 | 139 | 0.0 | 17.7 | 0.00 | 0.00 | 0.00 | 75 | 1014.1 |
| 20260905152602 | 28 | 195 | 0.0 | 8.0 | 0.00 | 0.00 | 0.00 | 76 | 1014.0 |
| 20260905152501 | 28 | 195 | 0.0 | 8.0 | 0.00 | 0.00 | 0.00 | 75 | 1014.0 |
| 20260905152306 | 28 | 195 | 1.6 | 12.9 | 0.00 | 0.00 | 0.00 | 76 | 1013.9 |
| 20260905152201 | 28 | 195 | 1.6 | 12.9 | 0.00 | 0.00 | 0.00 | 76 | 1014.0 |
| 20260905152101 | 28 | 150 | 1.6 | 12.9 | 0.00 | 0.00 | 0.00 | 76 | 1013.9 |
| 20260905152001 | 28 | 111 | 1.6 | 12.9 | 0.00 | 0.00 | 0.00 | 76 | 1013.9 |
| 20260905151903 | 28 | 111 | 1.6 | 12.9 | 0.00 | 0.00 | 0.00 | 76 | 1013.9 |
| 20260905151801 | 28 | 111 | 1.6 | 12.9 | 0.00 | 0.00 | 0.00 | 76 | 1013.9 |
| 20260905151700 | 28 | 111 | 1.6 | 12.9 | 0.00 | 0.00 | 0.00 | 75 | 1013.9 |
| 20260905151502 | 28 | 138 | 0.0 | 12.9 | 0.00 | 0.00 | 0.00 | 75 | 1014.0 |
| 20260905151401 | 28 | 145 | 0.0 | 1.6 | 0.00 | 0.00 | 0.00 | 77 | 1013.9 |
| 20260905151301 | 27 | 147 | 0.0 | 1.6 | 0.00 | 0.00 | 0.00 | 77 | 1013.9 |
| 20260905151105 | 27 | 90 | 0.0 | 12.9 | 0.00 | 0.00 | 0.00 | 77 | 1014.0 |
| 20260905151001 | 27 | 63 | 0.0 | 12.9 | 0.00 | 0.00 | 0.00 | 77 | 1014.0 |
| 20260905150901 | 27 | 140 | 0.0 | 12.9 | 0.00 | 0.00 | 0.00 | 78 | 1013.9 |
| 20260905150701 | 27 | 134 | 0.0 | 12.9 | 0.00 | 0.00 | 0.00 | 77 | 1013.8 |
| 20260905150602 | 27 | 142 | 0.0 | 12.9 | 0.00 | 0.00 | 0.00 | 78 | 1013.8 |
| 20260905150501 | 27 | 143 | 0.0 | 12.9 | 0.00 | 0.00 | 0.00 | 78 | 1013.8 |
| 20260905150402 | 27 | 145 | 1.6 | 12.9 | 0.00 | 0.00 | 0.00 | 78 | 1013.8 |
| 20260905150302 | 27 | 116 | 3.2 | 22.5 | 0.00 | 0.00 | 0.00 | 79 | 1013.8 |
| 20260905150200 | 27 | 160 | 1.6 | 22.5 | 0.00 | 0.00 | 0.00 | 78 | 1013.8 |
| 20260905150101 | 27 | 160 | 1.6 | 22.5 | 0.00 | 0.00 | 0.00 | 79 | 1013.7 |
| 20260905150005 | 27 | 168 | 3.2 | 22.5 | 0.00 | 0.00 | 0.00 | 79 | 1013.7 |
| 20260905145901 | 27 | 138 | 3.2 | 22.5 | 0.00 | 0.00 | 0.00 | 78 | 1013.8 |
| 20260905145801 | 27 | 170 | 3.2 | 22.5 | 0.00 | 0.00 | 0.00 | 79 | 1013.7 |
| 20260905145701 | 27 | 140 | 3.2 | 22.5 | 0.00 | 0.00 | 0.00 | 78 | 1013.7 |
| 20260905145604 | 27 | 168 | 4.8 | 22.5 | 0.00 | 0.00 | 0.00 | 77 | 1013.8 |
| 20260905145501 | 27 | 158 | 4.8 | 24.1 | 0.00 | 0.00 | 0.00 | 77 | 1013.8 |
| 20260905145401 | 27 | 140 | 4.8 | 24.1 | 0.00 | 0.00 | 0.00 | 77 | 1013.8 |
| 20260905145301 | 27 | 169 | 4.8 | 24.1 | 0.00 | 0.00 | 0.00 | 78 | 1013.7 |
| 20260905145204 | 27 | 135 | 4.8 | 24.1 | 0.00 | 0.00 | 0.00 | 78 | 1013.8 |
| 20260905144901 | 27 | 118 | 4.8 | 24.1 | 0.00 | 0.00 | 0.00 | 78 | 1013.9 |
| 20260905144701 | 27 | 132 | 4.8 | 24.1 | 0.00 | 0.00 | 0.00 | 77 | 1014.0 |
| 20260905144600 | 27 | 147 | 3.2 | 22.5 | 0.00 | 0.00 | 0.00 | 77 | 1013.9 |
| 20260905144501 | 27 | 157 | 3.2 | 22.5 | 0.00 | 0.00 | 0.00 | 78 | 1013.9 |
| 20260905144403 | 27 | 161 | 3.2 | 22.5 | 0.00 | 0.00 | 0.00 | 78 | 1013.9 |
| 20260905144301 | 27 | 71 | 3.2 | 22.5 | 0.00 | 0.00 | 0.00 | 79 | 1013.9 |
| 20260905144201 | 27 | 144 | 3.2 | 20.9 | 0.00 | 0.00 | 0.00 | 78 | 1013.8 |
| 20260905144101 | 27 | 77 | 3.2 | 20.9 | 0.00 | 0.00 | 0.00 | 79 | 1013.9 |
| 20260905144003 | 27 | 148 | 3.2 | 20.9 | 0.00 | 0.00 | 0.00 | 78 | 1013.9 |
| 20260905143901 | 27 | 124 | 3.2 | 20.9 | 0.00 | 0.00 | 0.00 | 78 | 1014.0 |
| 20260905143801 | 27 | 18 | 3.2 | 20.9 | 0.00 | 0.00 | 0.00 | 78 | 1014.0 |
| 20260905143605 | 27 | 138 | 3.2 | 20.9 | 0.00 | 0.00 | 0.00 | 78 | 1013.9 |
| 20260905143401 | 27 | 159 | 3.2 | 19.3 | 0.00 | 0.00 | 0.00 | 78 | 1014.0 |
| 20260905143302 | 27 | 174 | 1.6 | 19.3 | 0.00 | 0.00 | 0.00 | 80 | 1014.1 |
| 20260905143204 | 27 | 94 | 0.0 | 14.5 | 0.00 | 0.00 | 0.00 | 80 | 1014.1 |
| 20260905143101 | 27 | 131 | 1.6 | 14.5 | 0.00 | 0.00 | 0.00 | 79 | 1014.0 |
| 20260905143002 | 26 | 153 | 1.6 | 14.5 | 0.00 | 0.00 | 0.00 | 80 | 1014.1 |
| 20260905142901 | 26 | 150 | 1.6 | 14.5 | 0.00 | 0.00 | 0.00 | 80 | 1014.0 |
| 20260905142803 | 26 | 159 | 1.6 | 14.5 | 0.00 | 0.00 | 0.00 | 80 | 1014.0 |
| 20260905142601 | 26 | 167 | 1.6 | 17.7 | 0.00 | 0.00 | 0.00 | 80 | 1014.1 |
| 20260905142502 | 26 | 126 | 1.6 | 17.7 | 0.00 | 0.00 | 0.00 | 80 | 1014.1 |
| 20260905142403 | 26 | 95 | 3.2 | 17.7 | 0.00 | 0.00 | 0.00 | 80 | 1014.1 |
| 20260905142301 | 26 | 134 | 3.2 | 17.7 | 0.00 | 0.00 | 0.00 | 80 | 1014.0 |
| 20260905142003 | 26 | 161 | 3.2 | 20.9 | 0.00 | 0.00 | 0.00 | 80 | 1014.1 |
| 20260905141900 | 26 | 108 | 3.2 | 20.9 | 0.00 | 0.00 | 0.00 | 80 | 1014.1 |
| 20260905141701 | 26 | 119 | 1.6 | 20.9 | 0.00 | 0.00 | 0.00 | 81 | 1014.2 |
| 20260905141501 | 26 | 103 | 1.6 | 20.9 | 0.00 | 0.00 | 0.00 | 82 | 1014.2 |
| 20260905141402 | 26 | 116 | 1.6 | 20.9 | 0.00 | 0.00 | 0.00 | 82 | 1014.3 |
| 20260905141204 | 26 | 94 | 1.6 | 16.1 | 0.00 | 0.00 | 0.00 | 82 | 1014.2 |
| 20260905141100 | 26 | 113 | 3.2 | 16.1 | 0.00 | 0.00 | 0.00 | 81 | 1014.2 |
| 20260905141001 | 26 | 148 | 3.2 | 20.9 | 0.00 | 0.00 | 0.00 | 82 | 1014.2 |
| 20260905140701 | 26 | 125 | 4.8 | 20.9 | 0.00 | 0.00 | 0.00 | 82 | 1014.0 |
| 20260905140501 | 26 | 84 | 4.8 | 20.9 | 0.00 | 0.00 | 0.00 | 82 | 1014.0 |
| 20260905140403 | 26 | 40 | 4.8 | 20.9 | 0.00 | 0.00 | 0.00 | 82 | 1014.1 |
| 20260905140301 | 26 | 167 | 4.8 | 20.9 | 0.00 | 0.00 | 0.00 | 82 | 1014.1 |
| 20260905140201 | 26 | 69 | 4.8 | 20.9 | 0.00 | 0.00 | 0.00 | 81 | 1014.0 |
| 20260905140007 | 26 | 150 | 3.2 | 20.9 | 0.00 | 0.00 | 0.00 | 82 | 1014.1 |
| 20260905135901 | 26 | 150 | 3.2 | 20.9 | 0.00 | 0.00 | 0.00 | 83 | 1014.0 |
| 20260905135801 | 26 | 125 | 3.2 | 20.9 | 0.00 | 0.00 | 0.00 | 83 | 1014.0 |
| 20260905135703 | 26 | 163 | 3.2 | 27.4 | 0.00 | 0.00 | 0.00 | 83 | 1014.0 |
| 20260905135601 | 26 | 154 | 3.2 | 27.4 | 0.00 | 0.00 | 0.00 | 83 | 1014.0 |
| 20260905135401 | 26 | 92 | 1.6 | 27.4 | 0.00 | 0.00 | 0.00 | 85 | 1014.0 |
| 20260905135306 | 25 | 142 | 1.6 | 27.4 | 0.00 | 0.00 | 0.00 | 85 | 1014.1 |
| 20260905135201 | 25 | 101 | 3.2 | 27.4 | 0.00 | 0.00 | 0.00 | 84 | 1014.1 |
| 20260905135101 | 25 | 142 | 3.2 | 27.4 | 0.00 | 0.00 | 0.00 | 85 | 1014.1 |
| 20260905135001 | 25 | 329 | 1.6 | 27.4 | 0.00 | 0.00 | 0.00 | 85 | 1014.1 |
| 20260905134801 | 25 | 86 | 1.6 | 16.1 | 0.00 | 0.00 | 0.00 | 86 | 1014.0 |
| 20260905134701 | 25 | 123 | 1.6 | 16.1 | 0.00 | 0.00 | 0.00 | 86 | 1014.1 |
| 20260905134601 | 25 | 169 | 1.6 | 16.1 | 0.00 | 0.00 | 0.00 | 86 | 1014.1 |
| 20260905134503 | 25 | 93 | 1.6 | 16.1 | 0.00 | 0.00 | 0.00 | 86 | 1014.1 |
| 20260905134301 | 25 | 123 | 1.6 | 16.1 | 0.00 | 0.00 | 0.00 | 87 | 1014.1 |
| 20260905134104 | 25 | 65 | 1.6 | 14.5 | 0.00 | 0.00 | 0.00 | 87 | 1014.1 |
| 20260905134001 | 25 | 146 | 1.6 | 16.1 | 0.00 | 0.00 | 0.00 | 87 | 1014.0 |
| 20260905133900 | 25 | 153 | 1.6 | 16.1 | 0.00 | 0.00 | 0.00 | 87 | 1014.0 |
| 20260905133801 | 25 | 84 | 1.6 | 16.1 | 0.00 | 0.00 | 0.00 | 88 | 1014.1 |
| 20260905133703 | 25 | 106 | 1.6 | 16.1 | 0.00 | 0.00 | 0.00 | 88 | 1014.1 |
| 20260905133601 | 25 | 88 | 1.6 | 16.1 | 0.00 | 0.00 | 0.00 | 88 | 1014.1 |
| 20260905133500 | 25 | 119 | 1.6 | 16.1 | 0.00 | 0.00 | 0.00 | 89 | 1014.1 |
| 20260905133400 | 25 | 142 | 1.6 | 16.1 | 0.00 | 0.00 | 0.00 | 89 | 1014.2 |
| 20260905133303 | 25 | 161 | 1.6 | 16.1 | 0.00 | 0.00 | 0.00 | 90 | 1014.1 |
| 20260905133201 | 25 | 120 | 1.6 | 16.1 | 0.00 | 0.00 | 0.00 | 90 | 1014.1 |
| 20260905133102 | 25 | 144 | 0.0 | 8.0 | 0.00 | 0.00 | 0.00 | 90 | 1014.2 |
| 20260905133001 | 25 | 145 | 0.0 | 8.0 | 0.00 | 0.00 | 0.00 | 90 | 1014.1 |
| 20260905132903 | 25 | 131 | 1.6 | 8.0 | 0.00 | 0.00 | 0.00 | 91 | 1014.1 |
| 20260905132801 | 25 | 148 | 1.6 | 11.3 | 0.00 | 0.00 | 0.00 | 91 | 1014.2 |
| 20260905132701 | 24 | 114 | 1.6 | 11.3 | 0.00 | 0.00 | 0.00 | 91 | 1014.1 |
| 20260905132601 | 24 | 51 | 1.6 | 11.3 | 0.00 | 0.00 | 0.00 | 92 | 1014.2 |
| 20260905132301 | 24 | 121 | 1.6 | 14.5 | 0.00 | 0.00 | 0.00 | 94 | 1014.1 |
| 20260905132201 | 24 | 103 | 1.6 | 14.5 | 0.00 | 0.00 | 0.00 | 94 | 1014.1 |
| 20260905132103 | 24 | 128 | 1.6 | 14.5 | 0.00 | 0.00 | 0.00 | 94 | 1014.1 |
| 20260905131801 | 24 | 120 | 1.6 | 14.5 | 0.00 | 0.00 | 0.00 | 95 | 1014.0 |
| 20260905131707 | 24 | 145 | 1.6 | 14.5 | 0.00 | 0.00 | 0.00 | 95 | 1014.0 |
| 20260905131602 | 24 | 145 | 1.6 | 14.5 | 0.00 | 0.00 | 0.00 | 95 | 1014.1 |
| 20260905131501 | 23 | 138 | 1.6 | 14.5 | 0.00 | 0.00 | 0.00 | 95 | 1014.1 |
| 20260905131403 | 23 | 94 | 0.0 | 16.1 | 0.00 | 0.00 | 0.00 | 95 | 1014.1 |
| 20260905131301 | 23 | 87 | 0.0 | 16.1 | 0.00 | 0.00 | 0.00 | 96 | 1014.1 |
| 20260905131201 | 23 | 89 | 0.0 | 16.1 | 0.00 | 0.00 | 0.00 | 96 | 1014.1 |
| 20260905131101 | 23 | 119 | 0.0 | 16.1 | 0.00 | 0.00 | 0.00 | 96 | 1014.2 |
| 20260905131003 | 23 | 124 | 0.0 | 8.0 | 0.00 | 0.00 | 0.00 | 96 | 1014.1 |
| 20260905130801 | 23 | 124 | 0.0 | 8.0 | 0.00 | 0.00 | 0.00 | 96 | 1014.0 |
| 20260905130700 | 23 | 146 | 0.0 | 8.0 | 0.00 | 0.00 | 0.00 | 96 | 1014.1 |
| 20260905130501 | 23 | 174 | 0.0 | 8.0 | 0.00 | 0.00 | 0.00 | 96 | 1014.1 |
| 20260905130401 | 23 | 125 | 0.0 | 8.0 | 0.00 | 0.00 | 0.00 | 96 | 1014.1 |
| 20260905130301 | 23 | 100 | 0.0 | 8.0 | 0.00 | 0.00 | 0.00 | 96 | 1014.1 |
| 20260905130204 | 23 | 84 | 0.0 | 8.0 | 0.00 | 0.00 | 0.00 | 96 | 1014.1 |
| 20260905130101 | 23 | 84 | 0.0 | 8.0 | 0.00 | 0.00 | 0.00 | 96 | 1014.1 |
| 20260905130003 | 23 | 84 | 0.0 | 8.0 | 0.00 | 0.00 | 0.00 | 96 | 1014.1 |
| 20260905125903 | 23 | 71 | 0.0 | 9.7 | 0.00 | 0.00 | 0.00 | 97 | 1014.0 |
| 20260905125702 | 23 | 81 | 0.0 | 9.7 | 0.00 | 0.00 | 0.00 | 97 | 1014.0 |
| 20260905125601 | 23 | 140 | 1.6 | 9.7 | 0.00 | 0.00 | 0.00 | 97 | 1014.1 |
| 20260905125401 | 23 | 62 | 1.6 | 14.5 | 0.00 | 0.00 | 0.00 | 97 | 1014.0 |
| 20260905125301 | 23 | 51 | 1.6 | 14.5 | 0.00 | 0.00 | 0.00 | 97 | 1014.0 |
| 20260905125200 | 23 | 91 | 1.6 | 14.5 | 0.00 | 0.00 | 0.00 | 97 | 1014.1 |
| 20260905125103 | 23 | 94 | 1.6 | 14.5 | 0.00 | 0.00 | 0.00 | 97 | 1014.0 |
| 20260905125000 | 23 | 38 | 1.6 | 14.5 | 0.00 | 0.00 | 0.00 | 97 | 1013.9 |
| 20260905124901 | 23 | 60 | 1.6 | 14.5 | 0.00 | 0.00 | 0.00 | 97 | 1014.0 |
| 20260905124801 | 23 | 93 | 1.6 | 14.5 | 0.00 | 0.00 | 0.00 | 97 | 1014.1 |
| 20260905124601 | 23 | 28 | 0.0 | 11.3 | 0.00 | 0.00 | 0.00 | 97 | 1014.0 |
| 20260905124501 | 23 | 70 | 0.0 | 1.6 | 0.00 | 0.00 | 0.00 | 97 | 1013.7 |
| 20260905124401 | 23 | 312 | 0.0 | 0.0 | 0.00 | 0.00 | 0.00 | 97 | 1013.7 |
| 20260905124303 | 23 | 312 | 0.0 | 0.0 | 0.00 | 0.00 | 0.00 | 97 | 1013.6 |
| 20260905124101 | 23 | 312 | 0.0 | 0.0 | 0.00 | 0.00 | 0.00 | 97 | 1013.6 |
| 20260905124001 | 23 | 312 | 0.0 | 0.0 | 0.00 | 0.00 | 0.00 | 97 | 1013.6 |
| 20260905123903 | 23 | 312 | 0.0 | 0.0 | 0.00 | 0.00 | 0.00 | 97 | 1013.5 |
| 20260905123701 | 23 | 312 | 0.0 | 0.0 | 0.00 | 0.00 | 0.00 | 97 | 1013.5 |
| 20260905123600 | 23 | 312 | 0.0 | 0.0 | 0.00 | 0.00 | 0.00 | 97 | 1013.6 |
| 20260905123504 | 23 | 312 | 0.0 | 0.0 | 0.00 | 0.00 | 0.00 | 97 | 1013.6 |
| 20260905123101 | 23 | 312 | 0.0 | 0.0 | 0.00 | 0.00 | 0.00 | 97 | 1013.5 |
| 20260905123001 | 23 | 311 | 0.0 | 0.0 | 0.00 | 0.00 | 0.00 | 97 | 1013.4 |
| 20260905122802 | 23 | 311 | 0.0 | 0.0 | 0.00 | 0.00 | 0.00 | 97 | 1013.4 |
| 20260905122700 | 23 | 311 | 0.0 | 0.0 | 0.00 | 0.00 | 0.00 | 97 | 1013.5 |
| 20260905122501 | 23 | 311 | 0.0 | 0.0 | 0.00 | 0.00 | 0.00 | 97 | 1013.4 |
| 20260905122402 | 23 | 311 | 0.0 | 0.0 | 0.00 | 0.00 | 0.00 | 97 | 1013.4 |
| 20260905122301 | 23 | 311 | 0.0 | 0.0 | 0.00 | 0.00 | 0.00 | 97 | 1013.4 |
| 20260905122201 | 23 | 311 | 0.0 | 0.0 | 0.00 | 0.00 | 0.00 | 97 | 1013.5 |
| 20260905122101 | 23 | 311 | 0.0 | 0.0 | 0.00 | 0.00 | 0.00 | 97 | 1013.5 |
| 20260905121901 | 23 | 311 | 0.0 | 0.0 | 0.00 | 0.00 | 0.00 | 97 | 1013.4 |
| 20260905121801 | 23 | 311 | 0.0 | 0.0 | 0.00 | 0.00 | 0.00 | 97 | 1013.5 |
| 20260905121603 | 23 | 311 | 0.0 | 0.0 | 0.00 | 0.00 | 0.00 | 97 | 1013.4 |
| 20260905121501 | 23 | 311 | 0.0 | 0.0 | 0.00 | 0.00 | 0.00 | 97 | 1013.4 |
| 20260905121301 | 23 | 311 | 0.0 | 0.0 | 0.00 | 0.00 | 0.00 | 97 | 1013.5 |
| 20260905121203 | 23 | 311 | 0.0 | 0.0 | 0.00 | 0.00 | 0.00 | 97 | 1013.6 |
| 20260905121100 | 23 | 311 | 0.0 | 0.0 | 0.00 | 0.00 | 0.00 | 97 | 1013.5 |
| 20260905121002 | 23 | 311 | 0.0 | 0.0 | 0.00 | 0.00 | 0.00 | 97 | 1013.4 |
| 20260905120803 | 23 | 311 | 0.0 | 0.0 | 0.00 | 0.00 | 0.00 | 97 | 1013.4 |
| 20260905120701 | 23 | 311 | 0.0 | 0.0 | 0.00 | 0.00 | 0.00 | 97 | 1013.4 |
| 20260905120601 | 23 | 311 | 0.0 | 0.0 | 0.00 | 0.00 | 0.00 | 97 | 1013.3 |
| 20260905120501 | 23 | 311 | 0.0 | 0.0 | 0.00 | 0.00 | 0.00 | 97 | 1013.4 |
| 20260905120403 | 23 | 311 | 0.0 | 0.0 | 0.00 | 0.00 | 0.00 | 97 | 1013.3 |
| 20260905120301 | 23 | 311 | 0.0 | 0.0 | 0.00 | 0.00 | 0.00 | 97 | 1013.3 |
| 20260905120200 | 23 | 311 | 0.0 | 0.0 | 0.00 | 0.00 | 0.00 | 97 | 1013.3 |
| 20260905120100 | 23 | 311 | 0.0 | 0.0 | 0.00 | 0.00 | 0.00 | 97 | 1013.2 |
| 20260905120006 | 22 | 311 | 0.0 | 0.0 | 0.00 | 0.00 | 0.00 | 97 | 1013.2 |
| 20260905115901 | 22 | 311 | 0.0 | 0.0 | 0.00 | 0.00 | 0.00 | 97 | 1013.2 |
| 20260905115701 | 22 | 311 | 0.0 | 0.0 | 0.00 | 0.00 | 0.00 | 97 | 1013.1 |
| 20260905115604 | 22 | 311 | 0.0 | 0.0 | 0.00 | 0.00 | 0.00 | 97 | 1013.1 |
| 20260905115501 | 22 | 311 | 0.0 | 0.0 | 0.00 | 0.00 | 0.00 | 97 | 1013.2 |
| 20260905115402 | 22 | 311 | 0.0 | 0.0 | 0.00 | 0.00 | 0.00 | 97 | 1013.2 |
| 20260905115301 | 22 | 311 | 0.0 | 0.0 | 0.00 | 0.00 | 0.00 | 97 | 1013.2 |
| 20260905115203 | 22 | 311 | 0.0 | 0.0 | 0.00 | 0.00 | 0.00 | 97 | 1013.2 |
| 20260905115001 | 22 | 311 | 0.0 | 0.0 | 0.00 | 0.00 | 0.00 | 97 | 1013.1 |
| 20260905114804 | 22 | 311 | 0.0 | 0.0 | 0.00 | 0.00 | 0.00 | 97 | 1013.2 |
| 20260905114701 | 22 | 311 | 0.0 | 0.0 | 0.00 | 0.00 | 0.00 | 97 | 1013.1 |
| 20260905114601 | 22 | 311 | 0.0 | 0.0 | 0.00 | 0.00 | 0.00 | 97 | 1013.1 |
| 20260905114502 | 22 | 311 | 0.0 | 0.0 | 0.00 | 0.00 | 0.00 | 97 | 1013.1 |
| 20260905114403 | 22 | 311 | 0.0 | 0.0 | 0.00 | 0.00 | 0.00 | 97 | 1013.1 |
| 20260905114301 | 22 | 311 | 0.0 | 0.0 | 0.00 | 0.00 | 0.00 | 97 | 1013.1 |
| 20260905114101 | 22 | 311 | 0.0 | 0.0 | 0.00 | 0.00 | 0.00 | 97 | 1013.2 |
| 20260905113801 | 22 | 311 | 0.0 | 0.0 | 0.00 | 0.00 | 0.00 | 97 | 1013.1 |
| 20260905113701 | 22 | 311 | 0.0 | 0.0 | 0.00 | 0.00 | 0.00 | 97 | 1013.0 |
| 20260905113500 | 22 | 311 | 0.0 | 0.0 | 0.00 | 0.00 | 0.00 | 97 | 1013.1 |
| 20260905113401 | 22 | 311 | 0.0 | 0.0 | 0.00 | 0.00 | 0.00 | 97 | 1013.0 |
| 20260905113301 | 22 | 311 | 0.0 | 0.0 | 0.00 | 0.00 | 0.00 | 97 | 1013.0 |
| 20260905113203 | 22 | 311 | 0.0 | 0.0 | 0.00 | 0.00 | 0.00 | 97 | 1012.9 |
| 20260905113101 | 22 | 311 | 0.0 | 0.0 | 0.00 | 0.00 | 0.00 | 96 | 1013.0 |
| 20260905113001 | 22 | 311 | 0.0 | 0.0 | 0.00 | 0.00 | 0.00 | 96 | 1013.0 |
| 20260905112701 | 22 | 311 | 0.0 | 0.0 | 0.00 | 0.00 | 0.00 | 96 | 1012.9 |
| 20260905112601 | 22 | 311 | 0.0 | 0.0 | 0.00 | 0.00 | 0.00 | 96 | 1012.9 |
| 20260905112501 | 22 | 311 | 0.0 | 0.0 | 0.00 | 0.00 | 0.00 | 96 | 1012.9 |
| 20260905112403 | 22 | 311 | 0.0 | 0.0 | 0.00 | 0.00 | 0.00 | 96 | 1012.8 |
| 20260905112300 | 22 | 311 | 0.0 | 0.0 | 0.00 | 0.00 | 0.00 | 96 | 1012.8 |
| 20260905112201 | 22 | 311 | 0.0 | 0.0 | 0.00 | 0.00 | 0.00 | 96 | 1012.8 |
| 20260905112102 | 22 | 311 | 0.0 | 0.0 | 0.00 | 0.00 | 0.00 | 96 | 1012.8 |
| 20260905112003 | 22 | 311 | 0.0 | 0.0 | 0.00 | 0.00 | 0.00 | 96 | 1012.8 |
| 20260905111901 | 22 | 311 | 0.0 | 0.0 | 0.00 | 0.00 | 0.00 | 96 | 1012.8 |
| 20260905111802 | 22 | 311 | 0.0 | 0.0 | 0.00 | 0.00 | 0.00 | 96 | 1012.7 |
| 20260905111700 | 22 | 311 | 0.0 | 0.0 | 0.00 | 0.00 | 0.00 | 96 | 1012.7 |
| 20260905111604 | 22 | 311 | 0.0 | 0.0 | 0.00 | 0.00 | 0.00 | 96 | 1012.7 |
| 20260905111501 | 22 | 311 | 0.0 | 0.0 | 0.00 | 0.00 | 0.00 | 96 | 1012.6 |
| 20260905111401 | 22 | 311 | 0.0 | 0.0 | 0.00 | 0.00 | 0.00 | 96 | 1012.6 |
| 20260905111300 | 22 | 311 | 0.0 | 0.0 | 0.00 | 0.00 | 0.00 | 96 | 1012.6 |
| 20260905111100 | 22 | 311 | 0.0 | 0.0 | 0.00 | 0.00 | 0.00 | 96 | 1012.6 |
| 20260905111000 | 22 | 311 | 0.0 | 0.0 | 0.00 | 0.00 | 0.00 | 97 | 1012.6 |
| 20260905110901 | 22 | 311 | 0.0 | 0.0 | 0.00 | 0.00 | 0.00 | 97 | 1012.6 |
| 20260905110802 | 22 | 311 | 0.0 | 0.0 | 0.00 | 0.00 | 0.00 | 97 | 1012.6 |
| 20260905110601 | 22 | 311 | 0.0 | 0.0 | 0.00 | 0.00 | 0.00 | 97 | 1012.6 |
| 20260905110501 | 22 | 311 | 0.0 | 0.0 | 0.00 | 0.00 | 0.00 | 97 | 1012.6 |
| 20260905110402 | 22 | 311 | 0.0 | 0.0 | 0.00 | 0.00 | 0.00 | 97 | 1012.7 |
| 20260905110300 | 22 | 311 | 0.0 | 0.0 | 0.00 | 0.00 | 0.00 | 97 | 1012.6 |
| 20260905110201 | 22 | 311 | 0.0 | 0.0 | 0.00 | 0.00 | 0.00 | 97 | 1012.6 |
| 20260905110101 | 22 | 311 | 0.0 | 0.0 | 0.00 | 0.00 | 0.00 | 97 | 1012.6 |
| 20260905105801 | 22 | 311 | 0.0 | 0.0 | 0.00 | 0.00 | 0.00 | 97 | 1012.5 |
| 20260905105603 | 22 | 311 | 0.0 | 0.0 | 0.00 | 0.00 | 0.00 | 97 | 1012.6 |
| 20260905105501 | 22 | 311 | 0.0 | 0.0 | 0.00 | 0.00 | 0.00 | 97 | 1012.5 |
| 20260905105401 | 22 | 311 | 0.0 | 0.0 | 0.00 | 0.00 | 0.00 | 97 | 1012.6 |
| 20260905105300 | 22 | 311 | 0.0 | 0.0 | 0.00 | 0.00 | 0.00 | 97 | 1012.5 |
| 20260905105205 | 22 | 311 | 0.0 | 0.0 | 0.00 | 0.00 | 0.00 | 97 | 1012.5 |
| 20260905105101 | 22 | 311 | 0.0 | 0.0 | 0.00 | 0.00 | 0.00 | 97 | 1012.6 |
| 20260905105001 | 22 | 311 | 0.0 | 0.0 | 0.00 | 0.00 | 0.00 | 97 | 1012.6 |
| 20260905104901 | 22 | 311 | 0.0 | 0.0 | 0.00 | 0.00 | 0.00 | 97 | 1012.6 |
| 20260905104804 | 22 | 311 | 0.0 | 0.0 | 0.00 | 0.00 | 0.00 | 97 | 1012.7 |
| 20260905104601 | 22 | 311 | 0.0 | 0.0 | 0.00 | 0.00 | 0.00 | 97 | 1012.7 |
| 20260905104501 | 22 | 311 | 0.0 | 0.0 | 0.00 | 0.00 | 0.00 | 96 | 1012.7 |
| 20260905104403 | 22 | 311 | 0.0 | 0.0 | 0.00 | 0.00 | 0.00 | 96 | 1012.7 |
| 20260905104301 | 22 | 311 | 0.0 | 0.0 | 0.00 | 0.00 | 0.00 | 96 | 1012.7 |
| 20260905104201 | 22 | 311 | 0.0 | 0.0 | 0.00 | 0.00 | 0.00 | 96 | 1012.7 |
| 20260905104101 | 22 | 311 | 0.0 | 0.0 | 0.00 | 0.00 | 0.00 | 96 | 1012.6 |
| 20260905104003 | 22 | 311 | 0.0 | 0.0 | 0.00 | 0.00 | 0.00 | 96 | 1012.6 |
| 20260905103800 | 22 | 311 | 0.0 | 0.0 | 0.00 | 0.00 | 0.00 | 96 | 1012.7 |
| 20260905103701 | 22 | 311 | 0.0 | 0.0 | 0.00 | 0.00 | 0.00 | 96 | 1012.6 |
| 20260905103603 | 22 | 311 | 0.0 | 0.0 | 0.00 | 0.00 | 0.00 | 96 | 1012.7 |
| 20260905103501 | 23 | 311 | 0.0 | 0.0 | 0.00 | 0.00 | 0.00 | 96 | 1012.6 |
| 20260905103401 | 23 | 311 | 0.0 | 0.0 | 0.00 | 0.00 | 0.00 | 96 | 1012.7 |
| 20260905103301 | 23 | 311 | 0.0 | 0.0 | 0.00 | 0.00 | 0.00 | 96 | 1012.7 |
| 20260905103203 | 23 | 311 | 0.0 | 0.0 | 0.00 | 0.00 | 0.00 | 96 | 1012.7 |
| 20260905103101 | 23 | 311 | 0.0 | 0.0 | 0.00 | 0.00 | 0.00 | 96 | 1012.7 |
| 20260905103001 | 23 | 311 | 0.0 | 0.0 | 0.00 | 0.00 | 0.00 | 96 | 1012.8 |
| 20260905102900 | 23 | 311 | 0.0 | 0.0 | 0.00 | 0.00 | 0.00 | 96 | 1012.7 |
| 20260905102803 | 23 | 311 | 0.0 | 0.0 | 0.00 | 0.00 | 0.00 | 96 | 1012.8 |
| 20260905102701 | 23 | 311 | 0.0 | 0.0 | 0.00 | 0.00 | 0.00 | 96 | 1012.8 |
| 20260905102600 | 23 | 311 | 0.0 | 0.0 | 0.00 | 0.00 | 0.00 | 96 | 1012.7 |
| 20260905102501 | 23 | 311 | 0.0 | 0.0 | 0.00 | 0.00 | 0.00 | 96 | 1012.8 |
| 20260905102403 | 23 | 311 | 0.0 | 0.0 | 0.00 | 0.00 | 0.00 | 96 | 1012.8 |
| 20260905102301 | 23 | 311 | 0.0 | 0.0 | 0.00 | 0.00 | 0.00 | 96 | 1012.9 |
| 20260905102200 | 23 | 311 | 0.0 | 0.0 | 0.00 | 0.00 | 0.00 | 96 | 1012.9 |
| 20260905102102 | 23 | 311 | 0.0 | 0.0 | 0.00 | 0.00 | 0.00 | 96 | 1012.8 |
| 20260905102003 | 23 | 311 | 0.0 | 0.0 | 0.00 | 0.00 | 0.00 | 96 | 1012.9 |
| 20260905101901 | 23 | 311 | 0.0 | 0.0 | 0.00 | 0.00 | 0.00 | 96 | 1012.9 |
| 20260905101801 | 23 | 311 | 0.0 | 0.0 | 0.00 | 0.00 | 0.00 | 96 | 1012.9 |
| 20260905101701 | 23 | 311 | 0.0 | 0.0 | 0.00 | 0.00 | 0.00 | 96 | 1012.9 |
| 20260905101501 | 23 | 311 | 0.0 | 0.0 | 0.00 | 0.00 | 0.00 | 96 | 1012.9 |
| 20260905101301 | 23 | 311 | 0.0 | 0.0 | 0.00 | 0.00 | 0.00 | 96 | 1012.8 |
| 20260905101203 | 23 | 311 | 0.0 | 0.0 | 0.00 | 0.00 | 0.00 | 96 | 1012.9 |
| 20260905101101 | 23 | 311 | 0.0 | 0.0 | 0.00 | 0.00 | 0.00 | 96 | 1012.9 |
| 20260905101001 | 23 | 311 | 0.0 | 0.0 | 0.00 | 0.00 | 0.00 | 96 | 1012.9 |
| 20260905100901 | 23 | 311 | 0.0 | 0.0 | 0.00 | 0.00 | 0.00 | 96 | 1012.9 |
| 20260905100701 | 23 | 311 | 0.0 | 0.0 | 0.00 | 0.00 | 0.00 | 96 | 1012.8 |
| 20260905100601 | 23 | 311 | 0.0 | 0.0 | 0.00 | 0.00 | 0.00 | 96 | 1012.8 |
| 20260905100501 | 23 | 311 | 0.0 | 0.0 | 0.00 | 0.00 | 0.00 | 96 | 1012.7 |
| 20260905100403 | 23 | 311 | 0.0 | 0.0 | 0.00 | 0.00 | 0.00 | 96 | 1012.8 |
| 20260905100301 | 23 | 311 | 0.0 | 0.0 | 0.00 | 0.00 | 0.00 | 96 | 1012.8 |
| 20260905100202 | 23 | 311 | 0.0 | 0.0 | 0.00 | 0.00 | 0.00 | 96 | 1012.7 |
| 20260905100101 | 23 | 311 | 0.0 | 0.0 | 0.00 | 0.00 | 0.00 | 96 | 1012.7 |
| 20260905095801 | 23 | 311 | 0.0 | 0.0 | 0.00 | 0.00 | 0.00 | 96 | 1012.8 |
| 20260905095701 | 23 | 311 | 0.0 | 0.0 | 0.00 | 0.00 | 0.00 | 96 | 1012.8 |
| 20260905095603 | 23 | 311 | 0.0 | 0.0 | 0.00 | 0.00 | 0.00 | 96 | 1012.8 |
| 20260905095501 | 23 | 311 | 0.0 | 0.0 | 0.00 | 0.00 | 0.00 | 96 | 1012.7 |
| 20260905095401 | 23 | 311 | 0.0 | 0.0 | 0.00 | 0.00 | 0.00 | 96 | 1012.7 |
| 20260905095305 | 23 | 311 | 0.0 | 0.0 | 0.00 | 0.00 | 0.00 | 96 | 1012.8 |
| 20260905095203 | 23 | 311 | 0.0 | 0.0 | 0.00 | 0.00 | 0.00 | 96 | 1012.8 |
| 20260905095101 | 23 | 311 | 0.0 | 0.0 | 0.00 | 0.00 | 0.00 | 96 | 1012.8 |
| 20260905095001 | 23 | 311 | 0.0 | 0.0 | 0.00 | 0.00 | 0.00 | 96 | 1012.7 |
| 20260905094901 | 23 | 311 | 0.0 | 0.0 | 0.00 | 0.00 | 0.00 | 96 | 1012.6 |
| 20260905094803 | 23 | 311 | 0.0 | 0.0 | 0.00 | 0.00 | 0.00 | 96 | 1012.6 |
| 20260905094600 | 23 | 311 | 0.0 | 0.0 | 0.00 | 0.00 | 0.00 | 96 | 1012.6 |
| 20260905094501 | 23 | 311 | 0.0 | 0.0 | 0.00 | 0.00 | 0.00 | 96 | 1012.6 |
| 20260905094402 | 23 | 311 | 0.0 | 0.0 | 0.00 | 0.00 | 0.00 | 96 | 1012.6 |
| 20260905094301 | 23 | 311 | 0.0 | 0.0 | 0.00 | 0.00 | 0.00 | 96 | 1012.6 |
| 20260905094201 | 23 | 311 | 0.0 | 0.0 | 0.00 | 0.00 | 0.00 | 96 | 1012.6 |
| 20260905094101 | 23 | 311 | 0.0 | 0.0 | 0.00 | 0.00 | 0.00 | 96 | 1012.7 |
| 20260905094002 | 23 | 311 | 0.0 | 0.0 | 0.00 | 0.00 | 0.00 | 96 | 1012.6 |
| 20260905093901 | 23 | 311 | 0.0 | 0.0 | 0.00 | 0.00 | 0.00 | 96 | 1012.7 |
| 20260905093701 | 23 | 311 | 0.0 | 0.0 | 0.00 | 0.00 | 0.00 | 96 | 1012.7 |
| 20260905093602 | 23 | 311 | 0.0 | 0.0 | 0.00 | 0.00 | 0.00 | 96 | 1012.7 |
| 20260905093501 | 23 | 311 | 0.0 | 0.0 | 0.00 | 0.00 | 0.00 | 96 | 1012.6 |
| 20260905093401 | 23 | 311 | 0.0 | 0.0 | 0.00 | 0.00 | 0.00 | 96 | 1012.7 |
| 20260905093300 | 23 | 311 | 0.0 | 0.0 | 0.00 | 0.00 | 0.00 | 96 | 1012.6 |
| 20260905093203 | 23 | 311 | 0.0 | 0.0 | 0.00 | 0.00 | 0.00 | 96 | 1012.6 |
| 20260905092900 | 23 | 311 | 0.0 | 0.0 | 0.00 | 0.00 | 0.00 | 96 | 1012.6 |
| 20260905092803 | 23 | 311 | 0.0 | 0.0 | 0.00 | 0.00 | 0.00 | 96 | 1012.6 |
| 20260905092700 | 23 | 311 | 0.0 | 0.0 | 0.00 | 0.00 | 0.00 | 96 | 1012.6 |
| 20260905092601 | 23 | 311 | 0.0 | 0.0 | 0.00 | 0.00 | 0.00 | 96 | 1012.6 |
| 20260905092501 | 23 | 311 | 0.0 | 0.0 | 0.00 | 0.00 | 0.00 | 96 | 1012.6 |
| 20260905092403 | 23 | 311 | 0.0 | 0.0 | 0.00 | 0.00 | 0.00 | 96 | 1012.6 |
| 20260905092301 | 23 | 311 | 0.0 | 0.0 | 0.00 | 0.00 | 0.00 | 96 | 1012.6 |
| 20260905092201 | 23 | 311 | 0.0 | 0.0 | 0.00 | 0.00 | 0.00 | 96 | 1012.6 |
| 20260905092003 | 23 | 311 | 0.0 | 0.0 | 0.00 | 0.00 | 0.00 | 96 | 1012.6 |
| 20260905091801 | 23 | 311 | 0.0 | 0.0 | 0.00 | 0.00 | 0.00 | 96 | 1012.6 |
| 20260905091603 | 23 | 311 | 0.0 | 0.0 | 0.00 | 0.00 | 0.00 | 96 | 1012.6 |
| 20260905091501 | 23 | 311 | 0.0 | 0.0 | 0.00 | 0.00 | 0.00 | 96 | 1012.6 |
| 20260905091402 | 23 | 311 | 0.0 | 0.0 | 0.00 | 0.00 | 0.00 | 96 | 1012.5 |
| 20260905091202 | 23 | 311 | 0.0 | 0.0 | 0.00 | 0.00 | 0.00 | 96 | 1012.6 |
| 20260905091101 | 23 | 311 | 0.0 | 0.0 | 0.00 | 0.00 | 0.00 | 96 | 1012.5 |
| 20260905091001 | 23 | 311 | 0.0 | 0.0 | 0.00 | 0.00 | 0.00 | 96 | 1012.6 |
| 20260905090901 | 23 | 311 | 0.0 | 0.0 | 0.00 | 0.00 | 0.00 | 96 | 1012.6 |
| 20260905090803 | 23 | 311 | 0.0 | 0.0 | 0.00 | 0.00 | 0.00 | 96 | 1012.6 |
| 20260905090701 | 23 | 311 | 0.0 | 0.0 | 0.00 | 0.00 | 0.00 | 96 | 1012.6 |
| 20260905090600 | 23 | 311 | 0.0 | 0.0 | 0.00 | 0.00 | 0.00 | 96 | 1012.6 |
| 20260905090501 | 23 | 311 | 0.0 | 0.0 | 0.00 | 0.00 | 0.00 | 96 | 1012.6 |
| 20260905090301 | 23 | 311 | 0.0 | 0.0 | 0.00 | 0.00 | 0.00 | 96 | 1012.6 |
| 20260905090201 | 23 | 311 | 0.0 | 0.0 | 0.00 | 0.00 | 0.00 | 96 | 1012.5 |
| 20260905090005 | 23 | 311 | 0.0 | 0.0 | 0.00 | 0.00 | 0.00 | 96 | 1012.6 |
| 20260905085902 | 23 | 311 | 0.0 | 0.0 | 0.00 | 0.00 | 0.00 | 96 | 1012.5 |
| 20260905085701 | 23 | 311 | 0.0 | 0.0 | 0.00 | 0.00 | 0.00 | 96 | 1012.4 |
| 20260905085604 | 23 | 311 | 0.0 | 0.0 | 0.00 | 0.00 | 0.00 | 96 | 1012.4 |
| 20260905085501 | 23 | 311 | 0.0 | 0.0 | 0.00 | 0.00 | 0.00 | 96 | 1012.4 |
| 20260905085401 | 23 | 311 | 0.0 | 0.0 | 0.00 | 0.00 | 0.00 | 96 | 1012.4 |
| 20260905085300 | 23 | 311 | 0.0 | 0.0 | 0.00 | 0.00 | 0.00 | 96 | 1012.4 |
| 20260905085203 | 23 | 311 | 0.0 | 0.0 | 0.00 | 0.00 | 0.00 | 96 | 1012.4 |
| 20260905085000 | 23 | 311 | 0.0 | 0.0 | 0.00 | 0.00 | 0.00 | 96 | 1012.4 |
| 20260905084804 | 23 | 311 | 0.0 | 0.0 | 0.00 | 0.00 | 0.00 | 96 | 1012.4 |
| 20260905084701 | 23 | 311 | 0.0 | 0.0 | 0.00 | 0.00 | 0.00 | 96 | 1012.4 |
| 20260905084601 | 23 | 311 | 0.0 | 0.0 | 0.00 | 0.00 | 0.00 | 96 | 1012.4 |
| 20260905084501 | 23 | 311 | 0.0 | 0.0 | 0.00 | 0.00 | 0.00 | 96 | 1012.4 |
| 20260905084402 | 23 | 311 | 0.0 | 0.0 | 0.00 | 0.00 | 0.00 | 96 | 1012.4 |
| 20260905084300 | 23 | 311 | 0.0 | 0.0 | 0.00 | 0.00 | 0.00 | 96 | 1012.4 |
| 20260905084201 | 23 | 311 | 0.0 | 0.0 | 0.00 | 0.00 | 0.00 | 96 | 1012.3 |
| 20260905084101 | 23 | 311 | 0.0 | 0.0 | 0.00 | 0.00 | 0.00 | 96 | 1012.4 |
| 20260905084004 | 23 | 311 | 0.0 | 0.0 | 0.00 | 0.00 | 0.00 | 96 | 1012.3 |
| 20260905083901 | 23 | 311 | 0.0 | 0.0 | 0.00 | 0.00 | 0.00 | 96 | 1012.3 |
| 20260905083801 | 23 | 311 | 0.0 | 0.0 | 0.00 | 0.00 | 0.00 | 96 | 1012.3 |
| 20260905083701 | 23 | 311 | 0.0 | 0.0 | 0.00 | 0.00 | 0.00 | 96 | 1012.3 |
| 20260905083603 | 23 | 311 | 0.0 | 0.0 | 0.00 | 0.00 | 0.00 | 96 | 1012.3 |
| 20260905083401 | 23 | 311 | 0.0 | 0.0 | 0.00 | 0.00 | 0.00 | 96 | 1012.3 |
| 20260905083302 | 23 | 311 | 0.0 | 0.0 | 0.00 | 0.00 | 0.00 | 96 | 1012.2 |
| 20260905083203 | 23 | 311 | 0.0 | 0.0 | 0.00 | 0.00 | 0.00 | 96 | 1012.2 |
| 20260905083100 | 23 | 311 | 0.0 | 0.0 | 0.00 | 0.00 | 0.00 | 96 | 1012.3 |
| 20260905083002 | 23 | 311 | 0.0 | 0.0 | 0.00 | 0.00 | 0.00 | 96 | 1012.3 |
| 20260905082901 | 23 | 311 | 0.0 | 0.0 | 0.00 | 0.00 | 0.00 | 96 | 1012.3 |
| 20260905082700 | 23 | 311 | 0.0 | 0.0 | 0.00 | 0.00 | 0.00 | 96 | 1012.2 |
| 20260905082601 | 23 | 311 | 0.0 | 0.0 | 0.00 | 0.00 | 0.00 | 96 | 1012.3 |
| 20260905082402 | 23 | 311 | 0.0 | 0.0 | 0.00 | 0.00 | 0.00 | 96 | 1012.2 |
| 20260905082301 | 23 | 311 | 0.0 | 0.0 | 0.00 | 0.00 | 0.00 | 96 | 1012.3 |
| 20260905082201 | 23 | 311 | 0.0 | 0.0 | 0.00 | 0.00 | 0.00 | 96 | 1012.2 |
| 20260905082101 | 23 | 311 | 0.0 | 0.0 | 0.00 | 0.00 | 0.00 | 96 | 1012.1 |
| 20260905082003 | 23 | 311 | 0.0 | 0.0 | 0.00 | 0.00 | 0.00 | 96 | 1012.1 |
| 20260905081900 | 23 | 311 | 0.0 | 0.0 | 0.00 | 0.00 | 0.00 | 96 | 1012.1 |
| 20260905081801 | 23 | 311 | 0.0 | 0.0 | 0.00 | 0.00 | 0.00 | 96 | 1012.1 |
| 20260905081701 | 23 | 311 | 0.0 | 0.0 | 0.00 | 0.00 | 0.00 | 96 | 1012.1 |
| 20260905081603 | 23 | 311 | 0.0 | 0.0 | 0.00 | 0.00 | 0.00 | 96 | 1012.1 |
| 20260905081501 | 23 | 311 | 0.0 | 0.0 | 0.00 | 0.00 | 0.00 | 96 | 1012.0 |
| 20260905081301 | 23 | 311 | 0.0 | 0.0 | 0.00 | 0.00 | 0.00 | 96 | 1012.1 |
| 20260905081204 | 23 | 311 | 0.0 | 0.0 | 0.00 | 0.00 | 0.00 | 96 | 1011.9 |
| 20260905081101 | 23 | 311 | 0.0 | 0.0 | 0.00 | 0.00 | 0.00 | 96 | 1012.0 |
| 20260905081001 | 23 | 311 | 0.0 | 0.0 | 0.00 | 0.00 | 0.00 | 96 | 1012.0 |
| 20260905080901 | 23 | 311 | 0.0 | 0.0 | 0.00 | 0.00 | 0.00 | 96 | 1012.0 |
| 20260905080701 | 23 | 311 | 0.0 | 0.0 | 0.00 | 0.00 | 0.00 | 96 | 1012.1 |
| 20260905080600 | 23 | 311 | 0.0 | 0.0 | 0.00 | 0.00 | 0.00 | 96 | 1012.1 |
| 20260905080501 | 23 | 311 | 0.0 | 0.0 | 0.00 | 0.00 | 0.00 | 96 | 1012.0 |
| 20260905080402 | 23 | 311 | 0.0 | 0.0 | 0.00 | 0.00 | 0.00 | 96 | 1012.2 |
| 20260905080302 | 23 | 311 | 0.0 | 0.0 | 0.00 | 0.00 | 0.00 | 96 | 1012.1 |
| 20260905080200 | 23 | 311 | 0.0 | 0.0 | 0.00 | 0.00 | 0.00 | 96 | 1012.1 |
| 20260905080101 | 23 | 311 | 0.0 | 0.0 | 0.00 | 0.00 | 0.00 | 96 | 1012.1 |
| 20260905075900 | 23 | 311 | 0.0 | 0.0 | 0.00 | 0.00 | 0.00 | 96 | 1012.1 |
| 20260905075800 | 23 | 311 | 0.0 | 0.0 | 0.00 | 0.00 | 0.00 | 96 | 1012.1 |
| 20260905075700 | 23 | 311 | 0.0 | 0.0 | 0.00 | 0.00 | 0.00 | 96 | 1012.1 |
| 20260905075606 | 23 | 311 | 0.0 | 0.0 | 0.00 | 0.00 | 0.00 | 96 | 1012.1 |
| 20260905075501 | 23 | 311 | 0.0 | 0.0 | 0.00 | 0.00 | 0.00 | 96 | 1012.1 |
| 20260905075401 | 23 | 311 | 0.0 | 0.0 | 0.00 | 0.00 | 0.00 | 96 | 1012.1 |
| 20260905075301 | 23 | 311 | 0.0 | 0.0 | 0.00 | 0.00 | 0.00 | 96 | 1012.2 |
| 20260905075202 | 23 | 311 | 0.0 | 0.0 | 0.00 | 0.00 | 0.00 | 96 | 1012.2 |
| 20260905074901 | 23 | 311 | 0.0 | 0.0 | 0.00 | 0.00 | 0.00 | 95 | 1012.1 |
| 20260905074701 | 23 | 311 | 0.0 | 0.0 | 0.00 | 0.00 | 0.00 | 95 | 1012.2 |
| 20260905074601 | 23 | 311 | 0.0 | 0.0 | 0.00 | 0.00 | 0.00 | 95 | 1012.2 |
| 20260905074501 | 23 | 311 | 0.0 | 0.0 | 0.00 | 0.00 | 0.00 | 95 | 1012.2 |
| 20260905074402 | 23 | 311 | 0.0 | 0.0 | 0.00 | 0.00 | 0.00 | 95 | 1012.2 |
| 20260905074301 | 23 | 311 | 0.0 | 0.0 | 0.00 | 0.00 | 0.00 | 95 | 1012.1 |
| 20260905074201 | 23 | 311 | 0.0 | 0.0 | 0.00 | 0.00 | 0.00 | 95 | 1012.1 |
| 20260905074101 | 23 | 311 | 0.0 | 0.0 | 0.00 | 0.00 | 0.00 | 95 | 1012.2 |
| 20260905074003 | 23 | 311 | 0.0 | 0.0 | 0.00 | 0.00 | 0.00 | 95 | 1012.1 |
| 20260905073900 | 23 | 311 | 0.0 | 0.0 | 0.00 | 0.00 | 0.00 | 95 | 1012.1 |
| 20260905073801 | 23 | 311 | 0.0 | 0.0 | 0.00 | 0.00 | 0.00 | 95 | 1012.1 |
| 20260905073700 | 23 | 311 | 0.0 | 0.0 | 0.00 | 0.00 | 0.00 | 95 | 1012.1 |
| 20260905073603 | 23 | 311 | 0.0 | 0.0 | 0.00 | 0.00 | 0.00 | 95 | 1012.1 |
| 20260905073501 | 23 | 311 | 0.0 | 0.0 | 0.00 | 0.00 | 0.00 | 95 | 1012.2 |
| 20260905073302 | 23 | 311 | 0.0 | 0.0 | 0.00 | 0.00 | 0.00 | 95 | 1012.1 |
| 20260905073203 | 23 | 311 | 0.0 | 0.0 | 0.00 | 0.00 | 0.00 | 95 | 1012.1 |
| 20260905073101 | 23 | 311 | 0.0 | 0.0 | 0.00 | 0.00 | 0.00 | 95 | 1012.1 |
| 20260905073002 | 23 | 311 | 0.0 | 0.0 | 0.00 | 0.00 | 0.00 | 95 | 1012.1 |
| 20260905072804 | 23 | 311 | 0.0 | 0.0 | 0.00 | 0.00 | 0.00 | 95 | 1012.1 |
| 20260905072701 | 23 | 311 | 0.0 | 0.0 | 0.00 | 0.00 | 0.00 | 95 | 1012.2 |
| 20260905072600 | 23 | 311 | 0.0 | 0.0 | 0.00 | 0.00 | 0.00 | 95 | 1012.2 |
| 20260905072501 | 23 | 311 | 0.0 | 0.0 | 0.00 | 0.00 | 0.00 | 95 | 1012.2 |
| 20260905072402 | 23 | 311 | 0.0 | 0.0 | 0.00 | 0.00 | 0.00 | 95 | 1012.2 |
| 20260905072300 | 23 | 311 | 0.0 | 0.0 | 0.00 | 0.00 | 0.00 | 95 | 1012.2 |
| 20260905072101 | 23 | 311 | 0.0 | 0.0 | 0.00 | 0.00 | 0.00 | 95 | 1012.2 |
| 20260905071901 | 23 | 311 | 0.0 | 0.0 | 0.00 | 0.00 | 0.00 | 95 | 1012.3 |
| 20260905071801 | 23 | 311 | 0.0 | 0.0 | 0.00 | 0.00 | 0.00 | 95 | 1012.3 |
| 20260905071604 | 23 | 311 | 0.0 | 0.0 | 0.00 | 0.00 | 0.00 | 95 | 1012.3 |
| 20260905071501 | 23 | 311 | 0.0 | 0.0 | 0.00 | 0.00 | 0.00 | 95 | 1012.3 |
| 20260905071401 | 23 | 311 | 0.0 | 0.0 | 0.00 | 0.00 | 0.00 | 95 | 1012.3 |
| 20260905071301 | 23 | 311 | 0.0 | 0.0 | 0.00 | 0.00 | 0.00 | 95 | 1012.4 |
| 20260905071203 | 23 | 311 | 0.0 | 0.0 | 0.00 | 0.00 | 0.00 | 95 | 1012.4 |
| 20260905071101 | 23 | 311 | 0.0 | 0.0 | 0.00 | 0.00 | 0.00 | 95 | 1012.4 |
| 20260905070700 | 23 | 311 | 0.0 | 0.0 | 0.00 | 0.00 | 0.00 | 95 | 1012.4 |
| 20260905070601 | 23 | 311 | 0.0 | 0.0 | 0.00 | 0.00 | 0.00 | 95 | 1012.4 |
| 20260905070501 | 24 | 311 | 0.0 | 0.0 | 0.00 | 0.00 | 0.00 | 95 | 1012.4 |
| 20260905070404 | 24 | 311 | 0.0 | 0.0 | 0.00 | 0.00 | 0.00 | 95 | 1012.4 |
| 20260905070301 | 24 | 311 | 0.0 | 0.0 | 0.00 | 0.00 | 0.00 | 95 | 1012.4 |
| 20260905070201 | 24 | 311 | 0.0 | 0.0 | 0.00 | 0.00 | 0.00 | 95 | 1012.4 |
| 20260905070101 | 24 | 311 | 0.0 | 0.0 | 0.00 | 0.00 | 0.00 | 95 | 1012.4 |
| 20260905070005 | 24 | 311 | 0.0 | 0.0 | 0.00 | 0.00 | 0.00 | 95 | 1012.4 |
| 20260905065901 | 24 | 311 | 0.0 | 0.0 | 0.00 | 0.00 | 0.00 | 95 | 1012.4 |
| 20260905065801 | 24 | 311 | 0.0 | 0.0 | 0.00 | 0.00 | 0.00 | 95 | 1012.5 |
| 20260905065701 | 24 | 311 | 0.0 | 0.0 | 0.00 | 0.00 | 0.00 | 95 | 1012.5 |
| 20260905065301 | 24 | 311 | 0.0 | 0.0 | 0.00 | 0.00 | 0.00 | 95 | 1012.5 |
| 20260905065101 | 24 | 311 | 0.0 | 0.0 | 0.00 | 0.00 | 0.00 | 95 | 1012.6 |
| 20260905064900 | 24 | 311 | 0.0 | 0.0 | 0.00 | 0.00 | 0.00 | 95 | 1012.6 |
| 20260905064701 | 24 | 311 | 0.0 | 0.0 | 0.00 | 0.00 | 0.00 | 95 | 1012.6 |
| 20260905064601 | 24 | 311 | 0.0 | 0.0 | 0.00 | 0.00 | 0.00 | 95 | 1012.6 |
| 20260905064501 | 24 | 311 | 0.0 | 0.0 | 0.00 | 0.00 | 0.00 | 95 | 1012.6 |
| 20260905064402 | 24 | 311 | 0.0 | 0.0 | 0.00 | 0.00 | 0.00 | 95 | 1012.6 |
| 20260905064201 | 24 | 311 | 0.0 | 0.0 | 0.00 | 0.00 | 0.00 | 95 | 1012.7 |
| 20260905064101 | 24 | 311 | 0.0 | 0.0 | 0.00 | 0.00 | 0.00 | 95 | 1012.6 |
| 20260905064004 | 24 | 311 | 0.0 | 0.0 | 0.00 | 0.00 | 0.00 | 95 | 1012.7 |
| 20260905063901 | 24 | 311 | 0.0 | 0.0 | 0.00 | 0.00 | 0.00 | 95 | 1012.6 |
| 20260905063700 | 24 | 311 | 0.0 | 0.0 | 0.00 | 0.00 | 0.00 | 95 | 1012.7 |
| 20260905063602 | 24 | 311 | 0.0 | 0.0 | 0.00 | 0.00 | 0.00 | 95 | 1012.6 |
| 20260905063501 | 24 | 311 | 0.0 | 0.0 | 0.00 | 0.00 | 0.00 | 95 | 1012.7 |
| 20260905063401 | 24 | 311 | 0.0 | 0.0 | 0.00 | 0.00 | 0.00 | 95 | 1012.7 |
| 20260905063301 | 24 | 311 | 0.0 | 0.0 | 0.00 | 0.00 | 0.00 | 95 | 1012.7 |
| 20260905063203 | 24 | 311 | 0.0 | 0.0 | 0.00 | 0.00 | 0.00 | 95 | 1012.7 |
| 20260905063101 | 24 | 311 | 0.0 | 0.0 | 0.00 | 0.00 | 0.00 | 95 | 1012.7 |
| 20260905062901 | 24 | 311 | 0.0 | 0.0 | 0.00 | 0.00 | 0.00 | 95 | 1012.7 |
| 20260905062701 | 24 | 311 | 0.0 | 0.0 | 0.00 | 0.00 | 0.00 | 95 | 1012.7 |
| 20260905062601 | 24 | 311 | 0.0 | 0.0 | 0.00 | 0.00 | 0.00 | 95 | 1012.7 |
| 20260905062500 | 24 | 311 | 0.0 | 0.0 | 0.00 | 0.00 | 0.00 | 95 | 1012.6 |
| 20260905062301 | 24 | 311 | 0.0 | 0.0 | 0.00 | 0.00 | 0.00 | 95 | 1012.7 |
| 20260905062101 | 24 | 311 | 0.0 | 0.0 | 0.00 | 0.00 | 0.00 | 95 | 1012.7 |
| 20260905061900 | 24 | 311 | 0.0 | 0.0 | 0.00 | 0.00 | 0.00 | 95 | 1012.7 |
| 20260905061801 | 24 | 311 | 0.0 | 0.0 | 0.00 | 0.00 | 0.00 | 95 | 1012.7 |
| 20260905061701 | 24 | 311 | 0.0 | 0.0 | 0.00 | 0.00 | 0.00 | 95 | 1012.7 |
| 20260905061603 | 24 | 311 | 0.0 | 0.0 | 0.00 | 0.00 | 0.00 | 94 | 1012.7 |
| 20260905061501 | 24 | 311 | 0.0 | 0.0 | 0.00 | 0.00 | 0.00 | 94 | 1012.7 |
| 20260905061401 | 24 | 311 | 0.0 | 0.0 | 0.00 | 0.00 | 0.00 | 94 | 1012.7 |
| 20260905061301 | 24 | 311 | 0.0 | 0.0 | 0.00 | 0.00 | 0.00 | 94 | 1012.7 |
| 20260905061203 | 24 | 311 | 0.0 | 0.0 | 0.00 | 0.00 | 0.00 | 94 | 1012.7 |
| 20260905061101 | 24 | 311 | 0.0 | 0.0 | 0.00 | 0.00 | 0.00 | 94 | 1012.7 |
| 20260905061001 | 24 | 311 | 0.0 | 0.0 | 0.00 | 0.00 | 0.00 | 94 | 1012.7 |
| 20260905060901 | 24 | 311 | 0.0 | 0.0 | 0.00 | 0.00 | 0.00 | 94 | 1012.7 |
| 20260905060701 | 24 | 311 | 0.0 | 0.0 | 0.00 | 0.00 | 0.00 | 95 | 1012.7 |
| 20260905060601 | 24 | 311 | 0.0 | 0.0 | 0.00 | 0.00 | 0.00 | 94 | 1012.7 |
| 20260905060501 | 24 | 311 | 0.0 | 0.0 | 0.00 | 0.00 | 0.00 | 95 | 1012.8 |
| 20260905060402 | 24 | 311 | 0.0 | 0.0 | 0.00 | 0.00 | 0.00 | 95 | 1012.8 |
| 20260905060301 | 24 | 311 | 0.0 | 0.0 | 0.00 | 0.00 | 0.00 | 95 | 1012.8 |
| 20260905060201 | 24 | 311 | 0.0 | 0.0 | 0.00 | 0.00 | 0.00 | 95 | 1012.8 |
| 20260905060101 | 24 | 311 | 0.0 | 0.0 | 0.00 | 0.00 | 0.00 | 94 | 1012.7 |
| 20260905060005 | 24 | 311 | 0.0 | 0.0 | 0.00 | 0.00 | 0.00 | 94 | 1012.7 |
| 20260905055900 | 24 | 311 | 0.0 | 0.0 | 0.00 | 0.00 | 0.00 | 94 | 1012.8 |
| 20260905055800 | 24 | 311 | 0.0 | 0.0 | 0.00 | 0.00 | 0.00 | 94 | 1012.7 |
| 20260905055700 | 24 | 311 | 0.0 | 0.0 | 0.00 | 0.00 | 0.00 | 94 | 1012.7 |
| 20260905055604 | 24 | 311 | 0.0 | 0.0 | 0.00 | 0.00 | 0.00 | 94 | 1012.8 |
| 20260905055500 | 24 | 311 | 0.0 | 0.0 | 0.00 | 0.00 | 0.00 | 94 | 1012.8 |
| 20260905055301 | 24 | 311 | 0.0 | 0.0 | 0.00 | 0.00 | 0.00 | 94 | 1012.8 |
| 20260905055202 | 24 | 311 | 0.0 | 0.0 | 0.00 | 0.00 | 0.00 | 94 | 1012.8 |
| 20260905055101 | 24 | 311 | 0.0 | 0.0 | 0.00 | 0.00 | 0.00 | 94 | 1012.8 |
| 20260905054901 | 24 | 311 | 0.0 | 0.0 | 0.00 | 0.00 | 0.00 | 94 | 1012.8 |
| 20260905054803 | 24 | 311 | 0.0 | 0.0 | 0.00 | 0.00 | 0.00 | 94 | 1012.8 |
| 20260905054601 | 24 | 311 | 0.0 | 0.0 | 0.00 | 0.00 | 0.00 | 94 | 1012.8 |
| 20260905054501 | 24 | 311 | 0.0 | 0.0 | 0.00 | 0.00 | 0.00 | 94 | 1012.9 |
| 20260905054202 | 24 | 311 | 0.0 | 0.0 | 0.00 | 0.00 | 0.00 | 94 | 1012.8 |
| 20260905054101 | 24 | 311 | 0.0 | 0.0 | 0.00 | 0.00 | 0.00 | 94 | 1012.9 |
| 20260905054003 | 24 | 311 | 0.0 | 0.0 | 0.00 | 0.00 | 0.00 | 94 | 1012.8 |
| 20260905053901 | 24 | 311 | 0.0 | 0.0 | 0.00 | 0.00 | 0.00 | 94 | 1012.9 |
| 20260905053801 | 24 | 311 | 0.0 | 0.0 | 0.00 | 0.00 | 0.00 | 94 | 1012.9 |
| 20260905053701 | 24 | 311 | 0.0 | 0.0 | 0.00 | 0.00 | 0.00 | 94 | 1012.8 |
| 20260905053602 | 24 | 311 | 0.0 | 0.0 | 0.00 | 0.00 | 0.00 | 94 | 1012.9 |
| 20260905053500 | 24 | 311 | 0.0 | 0.0 | 0.00 | 0.00 | 0.00 | 94 | 1012.9 |
| 20260905053401 | 24 | 311 | 0.0 | 0.0 | 0.00 | 0.00 | 0.00 | 94 | 1012.9 |
| 20260905053301 | 24 | 311 | 0.0 | 0.0 | 0.00 | 0.00 | 0.00 | 93 | 1012.9 |
| 20260905053204 | 24 | 311 | 0.0 | 0.0 | 0.00 | 0.00 | 0.00 | 93 | 1012.9 |
| 20260905053000 | 24 | 311 | 0.0 | 0.0 | 0.00 | 0.00 | 0.00 | 93 | 1012.9 |
| 20260905052802 | 24 | 311 | 0.0 | 0.0 | 0.00 | 0.00 | 0.00 | 93 | 1012.9 |
| 20260905052700 | 24 | 311 | 0.0 | 0.0 | 0.00 | 0.00 | 0.00 | 93 | 1013.0 |
| 20260905052601 | 24 | 311 | 0.0 | 0.0 | 0.00 | 0.00 | 0.00 | 93 | 1013.0 |
| 20260905052501 | 24 | 311 | 0.0 | 0.0 | 0.00 | 0.00 | 0.00 | 93 | 1013.0 |
| 20260905052300 | 24 | 311 | 0.0 | 0.0 | 0.00 | 0.00 | 0.00 | 93 | 1013.0 |
| 20260905052200 | 24 | 311 | 0.0 | 0.0 | 0.00 | 0.00 | 0.00 | 93 | 1013.1 |
| 20260905052100 | 24 | 311 | 0.0 | 0.0 | 0.00 | 0.00 | 0.00 | 93 | 1013.1 |
| 20260905052003 | 24 | 311 | 0.0 | 0.0 | 0.00 | 0.00 | 0.00 | 93 | 1013.1 |
| 20260905051900 | 24 | 311 | 0.0 | 0.0 | 0.00 | 0.00 | 0.00 | 93 | 1013.1 |
| 20260905051801 | 24 | 311 | 0.0 | 0.0 | 0.00 | 0.00 | 0.00 | 93 | 1013.1 |
| 20260905051701 | 24 | 311 | 0.0 | 0.0 | 0.00 | 0.00 | 0.00 | 93 | 1013.2 |
| 20260905051603 | 24 | 311 | 0.0 | 0.0 | 0.00 | 0.00 | 0.00 | 93 | 1013.1 |
| 20260905051502 | 24 | 311 | 0.0 | 0.0 | 0.00 | 0.00 | 0.00 | 93 | 1013.1 |
| 20260905051401 | 25 | 311 | 0.0 | 0.0 | 0.00 | 0.00 | 0.00 | 93 | 1013.1 |
| 20260905051301 | 25 | 311 | 0.0 | 0.0 | 0.00 | 0.00 | 0.00 | 92 | 1013.1 |
| 20260905051204 | 25 | 311 | 0.0 | 0.0 | 0.00 | 0.00 | 0.00 | 92 | 1013.1 |
| 20260905051100 | 25 | 311 | 0.0 | 0.0 | 0.00 | 0.00 | 0.00 | 92 | 1013.2 |
| 20260905051000 | 25 | 311 | 0.0 | 0.0 | 0.00 | 0.00 | 0.00 | 92 | 1013.1 |
| 20260905050900 | 25 | 311 | 0.0 | 0.0 | 0.00 | 0.00 | 0.00 | 92 | 1013.1 |
| 20260905050805 | 25 | 311 | 0.0 | 0.0 | 0.00 | 0.00 | 0.00 | 92 | 1013.1 |
| 20260905050701 | 25 | 311 | 0.0 | 0.0 | 0.00 | 0.00 | 0.00 | 92 | 1013.2 |
| 20260905050600 | 25 | 311 | 0.0 | 0.0 | 0.00 | 0.00 | 0.00 | 92 | 1013.2 |
| 20260905050501 | 25 | 311 | 0.0 | 0.0 | 0.00 | 0.00 | 0.00 | 92 | 1013.2 |
| 20260905050404 | 25 | 311 | 0.0 | 0.0 | 0.00 | 0.00 | 0.00 | 92 | 1013.2 |
| 20260905050301 | 25 | 311 | 0.0 | 0.0 | 0.00 | 0.00 | 0.00 | 92 | 1013.2 |
| 20260905050200 | 25 | 311 | 0.0 | 0.0 | 0.00 | 0.00 | 0.00 | 92 | 1013.3 |
| 20260905050006 | 25 | 311 | 0.0 | 0.0 | 0.00 | 0.00 | 0.00 | 92 | 1013.2 |
| 20260905045901 | 25 | 311 | 0.0 | 0.0 | 0.00 | 0.00 | 0.00 | 92 | 1013.2 |
| 20260905045800 | 25 | 311 | 0.0 | 0.0 | 0.00 | 0.00 | 0.00 | 92 | 1013.3 |
| 20260905045704 | 25 | 311 | 0.0 | 0.0 | 0.00 | 0.00 | 0.00 | 92 | 1013.2 |
| 20260905045501 | 25 | 311 | 0.0 | 0.0 | 0.00 | 0.00 | 0.00 | 92 | 1013.3 |
| 20260905045401 | 25 | 311 | 0.0 | 0.0 | 0.00 | 0.00 | 0.00 | 92 | 1013.3 |
| 20260905045305 | 25 | 311 | 0.0 | 0.0 | 0.00 | 0.00 | 0.00 | 92 | 1013.2 |
| 20260905045200 | 25 | 311 | 0.0 | 0.0 | 0.00 | 0.00 | 0.00 | 92 | 1013.3 |
| 20260905045101 | 25 | 311 | 0.0 | 0.0 | 0.00 | 0.00 | 0.00 | 92 | 1013.3 |
| 20260905045001 | 25 | 311 | 0.0 | 0.0 | 0.00 | 0.00 | 0.00 | 92 | 1013.3 |
| 20260905044801 | 25 | 311 | 0.0 | 0.0 | 0.00 | 0.00 | 0.00 | 92 | 1013.2 |
| 20260905044701 | 25 | 311 | 0.0 | 0.0 | 0.00 | 0.00 | 0.00 | 92 | 1013.2 |
| 20260905044601 | 25 | 311 | 0.0 | 0.0 | 0.00 | 0.00 | 0.00 | 92 | 1013.3 |
| 20260905044503 | 25 | 311 | 0.0 | 0.0 | 0.00 | 0.00 | 0.00 | 92 | 1013.2 |
| 20260905044401 | 25 | 311 | 0.0 | 0.0 | 0.00 | 0.00 | 0.00 | 91 | 1013.2 |
| 20260905044300 | 25 | 311 | 0.0 | 0.0 | 0.00 | 0.00 | 0.00 | 91 | 1013.3 |
| 20260905044200 | 25 | 311 | 0.0 | 0.0 | 0.00 | 0.00 | 0.00 | 91 | 1013.3 |
| 20260905044103 | 25 | 311 | 0.0 | 0.0 | 0.00 | 0.00 | 0.00 | 91 | 1013.3 |
| 20260905043900 | 25 | 311 | 0.0 | 0.0 | 0.00 | 0.00 | 0.00 | 91 | 1013.3 |
| 20260905043801 | 25 | 311 | 0.0 | 0.0 | 0.00 | 0.00 | 0.00 | 91 | 1013.3 |
| 20260905043703 | 25 | 311 | 0.0 | 0.0 | 0.00 | 0.00 | 0.00 | 91 | 1013.4 |
| 20260905043600 | 25 | 311 | 0.0 | 0.0 | 0.00 | 0.00 | 0.00 | 91 | 1013.3 |
| 20260905043501 | 25 | 311 | 0.0 | 0.0 | 0.00 | 0.00 | 0.00 | 91 | 1013.4 |
| 20260905043401 | 25 | 311 | 0.0 | 0.0 | 0.00 | 0.00 | 0.00 | 91 | 1013.3 |
| 20260905043302 | 25 | 311 | 0.0 | 0.0 | 0.00 | 0.00 | 0.00 | 90 | 1013.3 |
| 20260905043201 | 25 | 311 | 0.0 | 0.0 | 0.00 | 0.00 | 0.00 | 90 | 1013.4 |
| 20260905043102 | 25 | 311 | 0.0 | 0.0 | 0.00 | 0.00 | 0.00 | 90 | 1013.3 |
| 20260905043001 | 25 | 311 | 0.0 | 0.0 | 0.00 | 0.00 | 0.00 | 90 | 1013.4 |
| 20260905042903 | 25 | 311 | 0.0 | 0.0 | 0.00 | 0.00 | 0.00 | 90 | 1013.4 |
| 20260905042801 | 25 | 311 | 0.0 | 0.0 | 0.00 | 0.00 | 0.00 | 90 | 1013.4 |
| 20260905042700 | 25 | 311 | 0.0 | 0.0 | 0.00 | 0.00 | 0.00 | 90 | 1013.4 |
| 20260905042502 | 25 | 311 | 0.0 | 0.0 | 0.00 | 0.00 | 0.00 | 90 | 1013.4 |
| 20260905042401 | 25 | 311 | 0.0 | 0.0 | 0.00 | 0.00 | 0.00 | 90 | 1013.4 |
| 20260905042302 | 25 | 311 | 0.0 | 0.0 | 0.00 | 0.00 | 0.00 | 90 | 1013.3 |
| 20260905042201 | 25 | 311 | 0.0 | 0.0 | 0.00 | 0.00 | 0.00 | 90 | 1013.4 |
| 20260905042103 | 25 | 311 | 0.0 | 0.0 | 0.00 | 0.00 | 0.00 | 90 | 1013.3 |
| 20260905042001 | 25 | 311 | 0.0 | 0.0 | 0.00 | 0.00 | 0.00 | 90 | 1013.3 |
| 20260905041900 | 25 | 311 | 0.0 | 0.0 | 0.00 | 0.00 | 0.00 | 90 | 1013.3 |
| 20260905041802 | 25 | 311 | 0.0 | 0.0 | 0.00 | 0.00 | 0.00 | 90 | 1013.3 |
| 20260905041704 | 25 | 311 | 0.0 | 0.0 | 0.00 | 0.00 | 0.00 | 90 | 1013.3 |
| 20260905041601 | 25 | 311 | 0.0 | 0.0 | 0.00 | 0.00 | 0.00 | 90 | 1013.3 |
| 20260905041501 | 25 | 311 | 0.0 | 0.0 | 0.00 | 0.00 | 0.00 | 90 | 1013.3 |
| 20260905041402 | 25 | 311 | 0.0 | 0.0 | 0.00 | 0.00 | 0.00 | 90 | 1013.3 |
| 20260905041301 | 25 | 311 | 0.0 | 0.0 | 0.00 | 0.00 | 0.00 | 91 | 1013.3 |
| 20260905041101 | 25 | 311 | 0.0 | 0.0 | 0.00 | 0.00 | 0.00 | 91 | 1013.3 |
| 20260905041003 | 25 | 311 | 0.0 | 0.0 | 0.00 | 0.00 | 0.00 | 91 | 1013.2 |
| 20260905040901 | 25 | 311 | 0.0 | 0.0 | 0.00 | 0.00 | 0.00 | 91 | 1013.3 |
| 20260905040801 | 25 | 311 | 0.0 | 0.0 | 0.00 | 0.00 | 0.00 | 91 | 1013.3 |
| 20260905040701 | 25 | 311 | 0.0 | 0.0 | 0.00 | 0.00 | 0.00 | 91 | 1013.3 |
| 20260905040604 | 25 | 311 | 0.0 | 0.0 | 0.00 | 0.00 | 0.00 | 91 | 1013.3 |
| 20260905040501 | 25 | 311 | 0.0 | 0.0 | 0.00 | 0.00 | 0.00 | 91 | 1013.3 |
| 20260905040301 | 25 | 311 | 0.0 | 0.0 | 0.00 | 0.00 | 0.00 | 91 | 1013.3 |
| 20260905040203 | 25 | 311 | 0.0 | 0.0 | 0.00 | 0.00 | 0.00 | 91 | 1013.3 |
| 20260905040101 | 25 | 311 | 0.0 | 0.0 | 0.00 | 0.00 | 0.00 | 91 | 1013.4 |
| 20260905040005 | 25 | 311 | 0.0 | 0.0 | 0.00 | 0.00 | 0.00 | 91 | 1013.4 |
| 20260905035903 | 25 | 311 | 0.0 | 0.0 | 0.00 | 0.00 | 0.00 | 91 | 1013.4 |
| 20260905035800 | 25 | 311 | 0.0 | 0.0 | 0.00 | 0.00 | 0.00 | 91 | 1013.4 |
| 20260905035700 | 25 | 311 | 0.0 | 0.0 | 0.00 | 0.00 | 0.00 | 91 | 1013.3 |
| 20260905035600 | 25 | 311 | 0.0 | 0.0 | 0.00 | 0.00 | 0.00 | 91 | 1013.3 |
| 20260905035504 | 25 | 311 | 0.0 | 0.0 | 0.00 | 0.00 | 0.00 | 91 | 1013.3 |
| 20260905035400 | 25 | 311 | 0.0 | 0.0 | 0.00 | 0.00 | 0.00 | 91 | 1013.3 |
| 20260905035300 | 25 | 311 | 0.0 | 0.0 | 0.00 | 0.00 | 0.00 | 91 | 1013.3 |
| 20260905035201 | 25 | 311 | 0.0 | 0.0 | 0.00 | 0.00 | 0.00 | 91 | 1013.3 |
| 20260905035102 | 25 | 311 | 0.0 | 0.0 | 0.00 | 0.00 | 0.00 | 91 | 1013.3 |
| 20260905035001 | 25 | 311 | 0.0 | 0.0 | 0.00 | 0.00 | 0.00 | 91 | 1013.4 |
| 20260905034900 | 25 | 311 | 0.0 | 0.0 | 0.00 | 0.00 | 0.00 | 91 | 1013.4 |
| 20260905034801 | 25 | 311 | 0.0 | 0.0 | 0.00 | 0.00 | 0.00 | 91 | 1013.4 |
| 20260905034703 | 25 | 311 | 0.0 | 0.0 | 0.00 | 0.00 | 0.00 | 91 | 1013.4 |
| 20260905034601 | 25 | 311 | 0.0 | 0.0 | 0.00 | 0.00 | 0.00 | 91 | 1013.4 |
| 20260905034500 | 25 | 311 | 0.0 | 0.0 | 0.00 | 0.00 | 0.00 | 91 | 1013.4 |
| 20260905034400 | 25 | 311 | 0.0 | 0.0 | 0.00 | 0.00 | 0.00 | 91 | 1013.4 |
| 20260905034303 | 25 | 311 | 0.0 | 0.0 | 0.00 | 0.00 | 0.00 | 91 | 1013.4 |
| 20260905034200 | 25 | 311 | 0.0 | 0.0 | 0.00 | 0.00 | 0.00 | 91 | 1013.3 |
| 20260905034100 | 25 | 311 | 0.0 | 0.0 | 0.00 | 0.00 | 0.00 | 91 | 1013.3 |
| 20260905034001 | 25 | 311 | 0.0 | 0.0 | 0.00 | 0.00 | 0.00 | 92 | 1013.2 |
| 20260905033800 | 25 | 311 | 0.0 | 0.0 | 0.00 | 0.00 | 0.00 | 92 | 1013.3 |
| 20260905033701 | 25 | 311 | 0.0 | 0.0 | 0.00 | 0.00 | 0.00 | 92 | 1013.3 |
| 20260905033601 | 25 | 311 | 0.0 | 0.0 | 0.00 | 0.00 | 0.00 | 92 | 1013.3 |
| 20260905033502 | 25 | 311 | 0.0 | 0.0 | 0.00 | 0.00 | 0.00 | 92 | 1013.3 |
| 20260905033301 | 25 | 311 | 0.0 | 0.0 | 0.00 | 0.00 | 0.00 | 91 | 1013.3 |
| 20260905033104 | 25 | 311 | 0.0 | 0.0 | 0.00 | 0.00 | 0.00 | 91 | 1013.3 |
| 20260905033000 | 25 | 311 | 0.0 | 0.0 | 0.00 | 0.00 | 0.00 | 91 | 1013.3 |
| 20260905032859 | 25 | 311 | 0.0 | 0.0 | 0.00 | 0.00 | 0.00 | 91 | 1013.4 |
| 20260905032801 | 25 | 311 | 0.0 | 0.0 | 0.00 | 0.00 | 0.00 | 91 | 1013.3 |
| 20260905032500 | 25 | 311 | 0.0 | 0.0 | 0.00 | 0.00 | 0.00 | 91 | 1013.4 |
| 20260905032401 | 25 | 311 | 0.0 | 0.0 | 0.00 | 0.00 | 0.00 | 91 | 1013.4 |
| 20260905032201 | 25 | 311 | 0.0 | 0.0 | 0.00 | 0.00 | 0.00 | 91 | 1013.4 |
| 20260905032000 | 25 | 311 | 0.0 | 0.0 | 0.00 | 0.00 | 0.00 | 92 | 1013.5 |
| 20260905031904 | 25 | 311 | 0.0 | 0.0 | 0.00 | 0.00 | 0.00 | 92 | 1013.4 |
| 20260905031801 | 25 | 311 | 0.0 | 0.0 | 0.00 | 0.00 | 0.00 | 92 | 1013.4 |
| 20260905031701 | 25 | 311 | 0.0 | 0.0 | 0.00 | 0.00 | 0.00 | 92 | 1013.5 |
| 20260905031601 | 25 | 311 | 0.0 | 0.0 | 0.00 | 0.00 | 0.00 | 92 | 1013.4 |
| 20260905031503 | 25 | 311 | 0.0 | 0.0 | 0.00 | 0.00 | 0.00 | 92 | 1013.4 |
| 20260905031401 | 25 | 311 | 0.0 | 0.0 | 0.00 | 0.00 | 0.00 | 92 | 1013.4 |
| 20260905031301 | 25 | 311 | 0.0 | 0.0 | 0.00 | 0.00 | 0.00 | 92 | 1013.4 |
| 20260905031103 | 26 | 311 | 0.0 | 0.0 | 0.00 | 0.00 | 0.00 | 92 | 1013.3 |
| 20260905031001 | 26 | 311 | 0.0 | 0.0 | 0.00 | 0.00 | 0.00 | 92 | 1013.4 |
| 20260905030802 | 26 | 311 | 0.0 | 0.0 | 0.00 | 0.00 | 0.00 | 92 | 1013.4 |
| 20260905030701 | 26 | 311 | 0.0 | 0.0 | 0.00 | 0.00 | 0.00 | 92 | 1013.3 |
| 20260905030601 | 26 | 311 | 0.0 | 0.0 | 0.00 | 0.00 | 0.00 | 92 | 1013.4 |
| 20260905030501 | 26 | 311 | 0.0 | 0.0 | 0.00 | 0.00 | 0.00 | 92 | 1013.4 |
| 20260905030405 | 26 | 311 | 0.0 | 0.0 | 0.00 | 0.00 | 0.00 | 92 | 1013.3 |
| 20260905030201 | 26 | 311 | 0.0 | 0.0 | 0.00 | 0.00 | 0.00 | 92 | 1013.4 |
| 20260905030101 | 26 | 311 | 0.0 | 0.0 | 0.00 | 0.00 | 0.00 | 92 | 1013.3 |
| 20260905030004 | 26 | 311 | 0.0 | 0.0 | 0.00 | 0.00 | 0.00 | 92 | 1013.2 |
| 20260905025900 | 26 | 311 | 0.0 | 0.0 | 0.00 | 0.00 | 0.00 | 92 | 1013.2 |
| 20260905025800 | 26 | 311 | 0.0 | 0.0 | 0.00 | 0.00 | 0.00 | 92 | 1013.2 |
| 20260905025700 | 26 | 311 | 0.0 | 0.0 | 0.00 | 0.00 | 0.00 | 92 | 1013.2 |
| 20260905025604 | 26 | 311 | 0.0 | 0.0 | 0.00 | 0.00 | 0.00 | 92 | 1013.2 |
| 20260905025501 | 26 | 311 | 0.0 | 0.0 | 0.00 | 0.00 | 0.00 | 92 | 1013.2 |
| 20260905025400 | 26 | 311 | 0.0 | 0.0 | 0.00 | 0.00 | 0.00 | 92 | 1013.2 |
| 20260905025301 | 26 | 311 | 0.0 | 0.0 | 0.00 | 0.00 | 0.00 | 92 | 1013.2 |
| 20260905025204 | 26 | 311 | 0.0 | 0.0 | 0.00 | 0.00 | 0.00 | 92 | 1013.3 |
| 20260905025101 | 26 | 311 | 0.0 | 0.0 | 0.00 | 0.00 | 0.00 | 92 | 1013.2 |
| 20260905024901 | 26 | 311 | 0.0 | 0.0 | 0.00 | 0.00 | 0.00 | 92 | 1013.3 |
| 20260905024803 | 26 | 311 | 0.0 | 0.0 | 0.00 | 0.00 | 0.00 | 92 | 1013.2 |
| 20260905024700 | 26 | 311 | 0.0 | 0.0 | 0.00 | 0.00 | 0.00 | 92 | 1013.3 |
| 20260905024601 | 26 | 311 | 0.0 | 0.0 | 0.00 | 0.00 | 0.00 | 92 | 1013.3 |
| 20260905024500 | 26 | 311 | 0.0 | 0.0 | 0.00 | 0.00 | 0.00 | 92 | 1013.3 |
| 20260905024404 | 26 | 311 | 0.0 | 0.0 | 0.00 | 0.00 | 0.00 | 92 | 1013.3 |
| 20260905024300 | 26 | 311 | 0.0 | 0.0 | 0.00 | 0.00 | 0.00 | 92 | 1013.3 |
| 20260905024101 | 26 | 311 | 0.0 | 0.0 | 0.00 | 0.00 | 0.00 | 92 | 1013.2 |
| 20260905023900 | 26 | 311 | 0.0 | 0.0 | 0.00 | 0.00 | 0.00 | 92 | 1013.3 |
| 20260905023800 | 26 | 311 | 0.0 | 0.0 | 0.00 | 0.00 | 0.00 | 92 | 1013.2 |
| 20260905023700 | 26 | 311 | 0.0 | 0.0 | 0.00 | 0.00 | 0.00 | 92 | 1013.3 |
| 20260905023603 | 26 | 311 | 0.0 | 0.0 | 0.00 | 0.00 | 0.00 | 91 | 1013.3 |
| 20260905023500 | 26 | 311 | 0.0 | 0.0 | 0.00 | 0.00 | 0.00 | 91 | 1013.3 |
| 20260905023401 | 26 | 311 | 0.0 | 0.0 | 0.00 | 0.00 | 0.00 | 91 | 1013.3 |
| 20260905023101 | 26 | 311 | 0.0 | 0.0 | 0.00 | 0.00 | 0.00 | 91 | 1013.3 |
| 20260905023000 | 26 | 311 | 0.0 | 0.0 | 0.00 | 0.00 | 0.00 | 91 | 1013.2 |
| 20260905022900 | 26 | 311 | 0.0 | 0.0 | 0.00 | 0.00 | 0.00 | 91 | 1013.3 |
| 20260905022805 | 26 | 311 | 0.0 | 0.0 | 0.00 | 0.00 | 0.00 | 91 | 1013.2 |
| 20260905022659 | 26 | 311 | 0.0 | 0.0 | 0.00 | 0.00 | 0.00 | 91 | 1013.2 |
| 20260905022601 | 26 | 311 | 0.0 | 0.0 | 0.00 | 0.00 | 0.00 | 90 | 1013.3 |
| 20260905022500 | 26 | 311 | 0.0 | 0.0 | 0.00 | 0.00 | 0.00 | 90 | 1013.2 |
| 20260905022404 | 26 | 311 | 0.0 | 0.0 | 0.00 | 0.00 | 0.00 | 90 | 1013.3 |
| 20260905022300 | 26 | 311 | 0.0 | 0.0 | 0.00 | 0.00 | 0.00 | 90 | 1013.3 |
| 20260905022200 | 26 | 311 | 0.0 | 0.0 | 0.00 | 0.00 | 0.00 | 90 | 1013.3 |
| 20260905022101 | 26 | 311 | 0.0 | 0.0 | 0.00 | 0.00 | 0.00 | 90 | 1013.2 |
| 20260905022003 | 26 | 311 | 0.0 | 0.0 | 0.00 | 0.00 | 0.00 | 90 | 1013.2 |
| 20260905021900 | 26 | 311 | 0.0 | 0.0 | 0.00 | 0.00 | 0.00 | 90 | 1013.2 |
| 20260905021801 | 26 | 311 | 0.0 | 0.0 | 0.00 | 0.00 | 0.00 | 90 | 1013.2 |
| 20260905021701 | 26 | 311 | 0.0 | 0.0 | 0.00 | 0.00 | 0.00 | 90 | 1013.2 |
| 20260905021605 | 26 | 311 | 0.0 | 0.0 | 0.00 | 0.00 | 0.00 | 90 | 1013.2 |
| 20260905021501 | 26 | 311 | 0.0 | 0.0 | 0.00 | 0.00 | 0.00 | 90 | 1013.2 |
| 20260905021400 | 26 | 311 | 0.0 | 0.0 | 0.00 | 0.00 | 0.00 | 90 | 1013.2 |
| 20260905021300 | 26 | 311 | 0.0 | 0.0 | 0.00 | 0.00 | 0.00 | 90 | 1013.2 |
| 20260905021204 | 27 | 311 | 0.0 | 0.0 | 0.00 | 0.00 | 0.00 | 90 | 1013.2 |
| 20260905021101 | 27 | 311 | 0.0 | 0.0 | 0.00 | 0.00 | 0.00 | 90 | 1013.2 |
| 20260905021001 | 27 | 311 | 0.0 | 0.0 | 0.00 | 0.00 | 0.00 | 90 | 1013.2 |
| 20260905020901 | 27 | 311 | 0.0 | 0.0 | 0.00 | 0.00 | 0.00 | 90 | 1013.3 |
| 20260905020804 | 27 | 311 | 0.0 | 0.0 | 0.00 | 0.00 | 0.00 | 90 | 1013.3 |
| 20260905020700 | 27 | 311 | 0.0 | 0.0 | 0.00 | 0.00 | 0.00 | 90 | 1013.2 |
| 20260905020600 | 27 | 311 | 0.0 | 0.0 | 0.00 | 0.00 | 0.00 | 89 | 1013.4 |
| 20260905020500 | 27 | 311 | 0.0 | 0.0 | 0.00 | 0.00 | 0.00 | 89 | 1013.3 |
| 20260905020404 | 27 | 311 | 0.0 | 0.0 | 0.00 | 0.00 | 0.00 | 89 | 1013.2 |
| 20260905020301 | 27 | 311 | 0.0 | 0.0 | 0.00 | 0.00 | 0.00 | 89 | 1013.2 |
| 20260905020201 | 27 | 311 | 0.0 | 0.0 | 0.00 | 0.00 | 0.00 | 89 | 1013.3 |
| 20260905015900 | 27 | 311 | 0.0 | 0.0 | 0.00 | 0.00 | 0.00 | 89 | 1013.2 |
| 20260905015203 | 27 | 311 | 0.0 | 0.0 | 0.00 | 0.00 | 0.00 | 89 | 1013.2 |
| 20260905015100 | 27 | 311 | 0.0 | 0.0 | 0.00 | 0.00 | 0.00 | 88 | 1013.2 |
| 20260905015001 | 27 | 311 | 0.0 | 0.0 | 0.00 | 0.00 | 0.00 | 88 | 1013.2 |
| 20260905014803 | 27 | 311 | 0.0 | 0.0 | 0.00 | 0.00 | 0.00 | 87 | 1013.1 |
| 20260905014700 | 27 | 311 | 0.0 | 0.0 | 0.00 | 0.00 | 0.00 | 87 | 1013.1 |
| 20260905014600 | 27 | 311 | 0.0 | 0.0 | 0.00 | 0.00 | 0.00 | 88 | 1013.1 |
| 20260905014500 | 27 | 311 | 0.0 | 0.0 | 0.00 | 0.00 | 0.00 | 88 | 1013.1 |
| 20260905014301 | 27 | 311 | 0.0 | 0.0 | 0.00 | 0.00 | 0.00 | 88 | 1013.1 |
| 20260905014201 | 27 | 311 | 0.0 | 0.0 | 0.00 | 0.00 | 0.00 | 88 | 1013.1 |
| 20260905014100 | 27 | 311 | 0.0 | 0.0 | 0.00 | 0.00 | 0.00 | 88 | 1013.1 |
| 20260905014003 | 27 | 311 | 0.0 | 0.0 | 0.00 | 0.00 | 0.00 | 88 | 1013.0 |
| 20260905013901 | 27 | 311 | 0.0 | 0.0 | 0.00 | 0.00 | 0.00 | 88 | 1013.0 |
| 20260905013800 | 27 | 311 | 0.0 | 0.0 | 0.00 | 0.00 | 0.00 | 88 | 1012.9 |
| 20260905013701 | 27 | 311 | 0.0 | 0.0 | 0.00 | 0.00 | 0.00 | 88 | 1013.0 |
| 20260905013601 | 27 | 311 | 0.0 | 0.0 | 0.00 | 0.00 | 0.00 | 88 | 1013.0 |
| 20260905013501 | 27 | 311 | 0.0 | 0.0 | 0.00 | 0.00 | 0.00 | 87 | 1013.0 |
| 20260905013300 | 27 | 311 | 0.0 | 0.0 | 0.00 | 0.00 | 0.00 | 87 | 1012.9 |
| 20260905013203 | 27 | 311 | 0.0 | 0.0 | 0.00 | 0.00 | 0.00 | 87 | 1012.9 |
| 20260905013000 | 27 | 311 | 0.0 | 0.0 | 0.00 | 0.00 | 0.00 | 87 | 1012.9 |
| 20260905012901 | 27 | 311 | 0.0 | 0.0 | 0.00 | 0.00 | 0.00 | 87 | 1012.9 |
| 20260905012802 | 27 | 311 | 0.0 | 0.0 | 0.00 | 0.00 | 0.00 | 87 | 1012.9 |
| 20260905012700 | 27 | 311 | 0.0 | 0.0 | 0.00 | 0.00 | 0.00 | 87 | 1012.8 |
| 20260905012405 | 27 | 311 | 0.0 | 0.0 | 0.00 | 0.00 | 0.00 | 86 | 1012.8 |
| 20260905012300 | 27 | 311 | 0.0 | 0.0 | 0.00 | 0.00 | 0.00 | 86 | 1012.8 |
| 20260905012200 | 27 | 311 | 0.0 | 0.0 | 0.00 | 0.00 | 0.00 | 86 | 1012.8 |
| 20260905012100 | 27 | 311 | 0.0 | 0.0 | 0.00 | 0.00 | 0.00 | 86 | 1012.8 |
| 20260905012002 | 27 | 311 | 0.0 | 0.0 | 0.00 | 0.00 | 0.00 | 86 | 1012.8 |
| 20260905011901 | 27 | 311 | 0.0 | 0.0 | 0.00 | 0.00 | 0.00 | 86 | 1012.9 |
| 20260905011800 | 27 | 311 | 0.0 | 0.0 | 0.00 | 0.00 | 0.00 | 86 | 1012.9 |
| 20260905011701 | 28 | 311 | 0.0 | 0.0 | 0.00 | 0.00 | 0.00 | 86 | 1012.9 |
| 20260905011604 | 28 | 311 | 0.0 | 0.0 | 0.00 | 0.00 | 0.00 | 85 | 1012.8 |
| 20260905011501 | 28 | 311 | 0.0 | 0.0 | 0.00 | 0.00 | 0.00 | 85 | 1012.8 |
| 20260905011400 | 28 | 311 | 0.0 | 0.0 | 0.00 | 0.00 | 0.00 | 85 | 1012.8 |
| 20260905011301 | 28 | 311 | 0.0 | 0.0 | 0.00 | 0.00 | 0.00 | 85 | 1012.8 |
| 20260905011203 | 28 | 311 | 0.0 | 0.0 | 0.00 | 0.00 | 0.00 | 85 | 1012.8 |
| 20260905011100 | 28 | 311 | 0.0 | 0.0 | 0.00 | 0.00 | 0.00 | 85 | 1012.8 |
| 20260905011001 | 28 | 311 | 0.0 | 0.0 | 0.00 | 0.00 | 0.00 | 84 | 1012.8 |
| 20260905010900 | 28 | 311 | 0.0 | 0.0 | 0.00 | 0.00 | 0.00 | 84 | 1012.8 |
| 20260905010803 | 28 | 311 | 0.0 | 0.0 | 0.00 | 0.00 | 0.00 | 84 | 1012.7 |
| 20260905010700 | 28 | 311 | 0.0 | 0.0 | 0.00 | 0.00 | 0.00 | 84 | 1012.7 |
| 20260905010601 | 28 | 311 | 0.0 | 0.0 | 0.00 | 0.00 | 0.00 | 84 | 1012.7 |
| 20260905010501 | 28 | 311 | 0.0 | 0.0 | 0.00 | 0.00 | 0.00 | 83 | 1012.7 |
| 20260905010404 | 28 | 311 | 0.0 | 0.0 | 0.00 | 0.00 | 0.00 | 83 | 1012.7 |
| 20260905010301 | 28 | 311 | 0.0 | 0.0 | 0.00 | 0.00 | 0.00 | 83 | 1012.7 |
| 20260905010200 | 28 | 311 | 0.0 | 0.0 | 0.00 | 0.00 | 0.00 | 83 | 1012.7 |
| 20260905010006 | 28 | 311 | 0.0 | 0.0 | 0.00 | 0.00 | 0.00 | 82 | 1012.7 |
| 20260905005900 | 28 | 311 | 0.0 | 0.0 | 0.00 | 0.00 | 0.00 | 82 | 1012.7 |
| 20260905005800 | 28 | 311 | 0.0 | 0.0 | 0.00 | 0.00 | 0.00 | 82 | 1012.7 |
| 20260905005703 | 28 | 311 | 0.0 | 0.0 | 0.00 | 0.00 | 0.00 | 82 | 1012.7 |
| 20260905005601 | 28 | 311 | 0.0 | 0.0 | 0.00 | 0.00 | 0.00 | 82 | 1012.7 |
| 20260905005501 | 28 | 311 | 0.0 | 0.0 | 0.00 | 0.00 | 0.00 | 82 | 1012.6 |
| 20260905005400 | 28 | 311 | 0.0 | 0.0 | 0.00 | 0.00 | 0.00 | 82 | 1012.6 |
| 20260905005306 | 28 | 311 | 0.0 | 0.0 | 0.00 | 0.00 | 0.00 | 82 | 1012.6 |
| 20260905005200 | 28 | 311 | 0.0 | 0.0 | 0.00 | 0.00 | 0.00 | 82 | 1012.6 |
| 20260905005059 | 28 | 311 | 0.0 | 0.0 | 0.00 | 0.00 | 0.00 | 82 | 1012.6 |
| 20260905005000 | 28 | 311 | 0.0 | 0.0 | 0.00 | 0.00 | 0.00 | 82 | 1012.6 |
| 20260905004903 | 28 | 311 | 0.0 | 0.0 | 0.00 | 0.00 | 0.00 | 82 | 1012.6 |
| 20260905004759 | 28 | 311 | 0.0 | 0.0 | 0.00 | 0.00 | 0.00 | 82 | 1012.6 |
| 20260905004700 | 28 | 311 | 0.0 | 0.0 | 0.00 | 0.00 | 0.00 | 82 | 1012.6 |
| 20260905004601 | 28 | 311 | 0.0 | 0.0 | 0.00 | 0.00 | 0.00 | 82 | 1012.6 |
| 20260905004502 | 28 | 311 | 0.0 | 0.0 | 0.00 | 0.00 | 0.00 | 82 | 1012.6 |
| 20260905004359 | 29 | 311 | 0.0 | 0.0 | 0.00 | 0.00 | 0.00 | 82 | 1012.6 |
| 20260905004259 | 29 | 311 | 0.0 | 0.0 | 0.00 | 0.00 | 0.00 | 82 | 1012.6 |
| 20260905004201 | 29 | 311 | 0.0 | 0.0 | 0.00 | 0.00 | 0.00 | 82 | 1012.6 |
| 20260905004103 | 29 | 311 | 0.0 | 0.0 | 0.00 | 0.00 | 0.00 | 82 | 1012.5 |
| 20260905004000 | 29 | 311 | 0.0 | 0.0 | 0.00 | 0.00 | 0.00 | 82 | 1012.6 |
| 20260905003900 | 29 | 311 | 0.0 | 0.0 | 0.00 | 0.00 | 0.00 | 82 | 1012.5 |
| 20260905003800 | 29 | 311 | 0.0 | 0.0 | 0.00 | 0.00 | 0.00 | 82 | 1012.5 |
| 20260905003703 | 29 | 311 | 0.0 | 0.0 | 0.00 | 0.00 | 0.00 | 81 | 1012.5 |
| 20260905003600 | 29 | 311 | 0.0 | 0.0 | 0.00 | 0.00 | 0.00 | 81 | 1012.4 |
| 20260905003501 | 29 | 311 | 0.0 | 0.0 | 0.00 | 0.00 | 0.00 | 81 | 1012.5 |
| 20260905003400 | 29 | 311 | 0.0 | 0.0 | 0.00 | 0.00 | 0.00 | 80 | 1012.5 |
| 20260905003201 | 29 | 311 | 0.0 | 0.0 | 0.00 | 0.00 | 0.00 | 80 | 1012.4 |
| 20260905003101 | 29 | 311 | 0.0 | 0.0 | 0.00 | 0.00 | 0.00 | 80 | 1012.5 |
| 20260905002906 | 30 | 311 | 0.0 | 0.0 | 0.00 | 0.00 | 0.00 | 81 | 1012.5 |
| 20260905002801 | 30 | 311 | 0.0 | 0.0 | 0.00 | 0.00 | 0.00 | 81 | 1012.4 |
| 20260905002700 | 30 | 311 | 0.0 | 0.0 | 0.00 | 0.00 | 0.00 | 81 | 1012.5 |
| 20260905002600 | 30 | 311 | 0.0 | 0.0 | 0.00 | 0.00 | 0.00 | 81 | 1012.4 |
| 20260905002506 | 30 | 311 | 0.0 | 0.0 | 0.00 | 0.00 | 0.00 | 81 | 1012.4 |
| 20260905002300 | 30 | 311 | 0.0 | 0.0 | 0.00 | 0.00 | 0.00 | 81 | 1012.4 |
| 20260905002201 | 30 | 311 | 0.0 | 0.0 | 0.00 | 0.00 | 0.00 | 81 | 1012.4 |
| 20260905002101 | 30 | 311 | 0.0 | 0.0 | 0.00 | 0.00 | 0.00 | 81 | 1012.5 |
| 20260905002000 | 30 | 311 | 0.0 | 0.0 | 0.00 | 0.00 | 0.00 | 80 | 1012.5 |
| 20260905001900 | 30 | 311 | 0.0 | 0.0 | 0.00 | 0.00 | 0.00 | 80 | 1012.5 |
| 20260905001800 | 30 | 311 | 0.0 | 0.0 | 0.00 | 0.00 | 0.00 | 80 | 1012.4 |
| 20260905001703 | 30 | 311 | 0.0 | 0.0 | 0.00 | 0.00 | 0.00 | 80 | 1012.4 |
| 20260905001601 | 30 | 311 | 0.0 | 0.0 | 0.00 | 0.00 | 0.00 | 79 | 1012.3 |
| 20260905001500 | 30 | 311 | 0.0 | 0.0 | 0.00 | 0.00 | 0.00 | 78 | 1012.4 |
| 20260905001401 | 30 | 311 | 0.0 | 0.0 | 0.00 | 0.00 | 0.00 | 78 | 1012.4 |
| 20260905001304 | 30 | 311 | 0.0 | 0.0 | 0.00 | 0.00 | 0.00 | 78 | 1012.4 |
| 20260905001002 | 30 | 311 | 0.0 | 0.0 | 0.00 | 0.00 | 0.00 | 78 | 1012.4 |
| 20260905000800 | 30 | 311 | 0.0 | 0.0 | 0.00 | 0.00 | 0.00 | 78 | 1012.4 |
| 20260905000700 | 30 | 311 | 0.0 | 0.0 | 0.00 | 0.00 | 0.00 | 78 | 1012.4 |
| 20260905000503 | 30 | 311 | 0.0 | 0.0 | 0.00 | 0.00 | 0.00 | 78 | 1012.4 |
| 20260905000200 | 30 | 311 | 0.0 | 0.0 | 0.00 | 0.00 | 0.00 | 78 | 1012.5 |
| 20260905000003 | 30 | 262 | 0.0 | 0.0 | 0.00 | 0.00 | 0.00 | 76 | 1012.4 |
| 20260904235900 | 31 | 141 | 0.0 | 0.0 | 0.00 | 0.00 | 0.00 | 76 | 1012.4 |
| 20260904235802 | 31 | 188 | 0.0 | 0.0 | 0.00 | 0.00 | 0.00 | 75 | 1012.4 |
| 20260904235700 | 31 | 188 | 0.0 | 0.0 | 0.00 | 0.00 | 0.00 | 75 | 1012.4 |
| 20260904235600 | 31 | 188 | 0.0 | 0.0 | 0.00 | 0.00 | 0.00 | 75 | 1012.4 |
| 20260904235501 | 31 | 188 | 0.0 | 0.0 | 0.00 | 0.00 | 0.00 | 74 | 1012.4 |
| 20260904235403 | 31 | 188 | 0.0 | 0.0 | 0.00 | 0.00 | 0.00 | 74 | 1012.3 |
| 20260904235300 | 31 | 188 | 0.0 | 0.0 | 0.00 | 0.00 | 0.00 | 74 | 1012.3 |
| 20260904235200 | 31 | 188 | 0.0 | 0.0 | 0.00 | 0.00 | 0.00 | 74 | 1012.3 |
| 20260904234859 | 31 | 188 | 0.0 | 0.0 | 0.00 | 0.00 | 0.00 | 74 | 1012.3 |
| 20260904234800 | 31 | 188 | 0.0 | 0.0 | 0.00 | 0.00 | 0.00 | 73 | 1012.3 |
| 20260904234701 | 31 | 188 | 0.0 | 0.0 | 0.00 | 0.00 | 0.00 | 73 | 1012.3 |
| 20260904234602 | 31 | 188 | 0.0 | 0.0 | 0.00 | 0.00 | 0.00 | 73 | 1012.3 |
| 20260904234401 | 31 | 188 | 0.0 | 0.0 | 0.00 | 0.00 | 0.00 | 72 | 1012.4 |
| 20260904234203 | 31 | 188 | 0.0 | 0.0 | 0.00 | 0.00 | 0.00 | 72 | 1012.4 |
| 20260904234100 | 31 | 188 | 0.0 | 0.0 | 0.00 | 0.00 | 0.00 | 72 | 1012.4 |
| 20260904233900 | 31 | 188 | 0.0 | 0.0 | 0.00 | 0.00 | 0.00 | 71 | 1012.4 |
| 20260904233802 | 31 | 188 | 0.0 | 0.0 | 0.00 | 0.00 | 0.00 | 71 | 1012.4 |
| 20260904233701 | 31 | 188 | 0.0 | 0.0 | 0.00 | 0.00 | 0.00 | 71 | 1012.4 |
| 20260904233600 | 31 | 188 | 0.0 | 0.0 | 0.00 | 0.00 | 0.00 | 71 | 1012.4 |
| 20260904233403 | 31 | 188 | 0.0 | 0.0 | 0.00 | 0.00 | 0.00 | 70 | 1012.4 |
| 20260904233300 | 31 | 188 | 0.0 | 0.0 | 0.00 | 0.00 | 0.00 | 70 | 1012.4 |
| 20260904233200 | 31 | 188 | 0.0 | 0.0 | 0.00 | 0.00 | 0.00 | 70 | 1012.3 |
| 20260904233101 | 31 | 188 | 0.0 | 0.0 | 0.00 | 0.00 | 0.00 | 70 | 1012.4 |
| 20260904233003 | 31 | 188 | 0.0 | 0.0 | 0.00 | 0.00 | 0.00 | 70 | 1012.3 |
| 20260904232900 | 31 | 188 | 0.0 | 0.0 | 0.00 | 0.00 | 0.00 | 70 | 1012.4 |
| 20260904232800 | 31 | 188 | 0.0 | 0.0 | 0.00 | 0.00 | 0.00 | 70 | 1012.4 |
| 20260904232700 | 31 | 188 | 0.0 | 0.0 | 0.00 | 0.00 | 0.00 | 70 | 1012.4 |
| 20260904232603 | 31 | 188 | 0.0 | 0.0 | 0.00 | 0.00 | 0.00 | 70 | 1012.4 |
| 20260904232401 | 31 | 188 | 0.0 | 0.0 | 0.00 | 0.00 | 0.00 | 70 | 1012.4 |
| 20260904232300 | 31 | 188 | 0.0 | 0.0 | 0.00 | 0.00 | 0.00 | 70 | 1012.4 |
| 20260904232203 | 31 | 188 | 0.0 | 0.0 | 0.00 | 0.00 | 0.00 | 69 | 1012.4 |
| 20260904232101 | 31 | 188 | 0.0 | 0.0 | 0.00 | 0.00 | 0.00 | 69 | 1012.3 |
| 20260904231701 | 31 | 188 | 0.0 | 0.0 | 0.00 | 0.00 | 0.00 | 68 | 1012.3 |
| 20260904231601 | 31 | 188 | 0.0 | 0.0 | 0.00 | 0.00 | 0.00 | 68 | 1012.3 |
| 20260904231501 | 31 | 188 | 0.0 | 0.0 | 0.00 | 0.00 | 0.00 | 69 | 1012.4 |
| 20260904231403 | 31 | 188 | 0.0 | 0.0 | 0.00 | 0.00 | 0.00 | 69 | 1012.3 |
| 20260904231301 | 32 | 188 | 0.0 | 0.0 | 0.00 | 0.00 | 0.00 | 69 | 1012.4 |
| 20260904231200 | 32 | 188 | 0.0 | 0.0 | 0.00 | 0.00 | 0.00 | 69 | 1012.3 |
| 20260904231101 | 32 | 188 | 0.0 | 0.0 | 0.00 | 0.00 | 0.00 | 69 | 1012.3 |
| 20260904231003 | 32 | 188 | 0.0 | 0.0 | 0.00 | 0.00 | 0.00 | 69 | 1012.3 |
| 20260904230900 | 32 | 188 | 0.0 | 0.0 | 0.00 | 0.00 | 0.00 | 69 | 1012.4 |
| 20260904230700 | 32 | 188 | 0.0 | 0.0 | 0.00 | 0.00 | 0.00 | 68 | 1012.4 |
| 20260904230603 | 32 | 188 | 0.0 | 0.0 | 0.00 | 0.00 | 0.00 | 68 | 1012.4 |
| 20260904230500 | 32 | 188 | 0.0 | 0.0 | 0.00 | 0.00 | 0.00 | 68 | 1012.3 |
| 20260904230400 | 32 | 188 | 0.0 | 0.0 | 0.00 | 0.00 | 0.00 | 68 | 1012.4 |
| 20260904230300 | 32 | 188 | 0.0 | 0.0 | 0.00 | 0.00 | 0.00 | 68 | 1012.4 |
| 20260904230201 | 32 | 188 | 0.0 | 0.0 | 0.00 | 0.00 | 0.00 | 68 | 1012.4 |
| 20260904230101 | 32 | 188 | 0.0 | 0.0 | 0.00 | 0.00 | 0.00 | 68 | 1012.4 |
| 20260904230003 | 32 | 188 | 0.0 | 0.0 | 0.00 | 0.00 | 0.00 | 68 | 1012.4 |
| 20260904225900 | 32 | 188 | 0.0 | 0.0 | 0.00 | 0.00 | 0.00 | 68 | 1012.4 |
| 20260904225501 | 32 | 188 | 0.0 | 0.0 | 0.00 | 0.00 | 0.00 | 68 | 1012.4 |
| 20260904225401 | 32 | 188 | 0.0 | 0.0 | 0.00 | 0.00 | 0.00 | 68 | 1012.5 |
| 20260904225301 | 32 | 188 | 0.0 | 0.0 | 0.00 | 0.00 | 0.00 | 68 | 1012.4 |
| 20260904225200 | 32 | 188 | 0.0 | 0.0 | 0.00 | 0.00 | 0.00 | 68 | 1012.4 |
| 20260904225103 | 32 | 188 | 0.0 | 0.0 | 0.00 | 0.00 | 0.00 | 68 | 1012.5 |
| 20260904225000 | 32 | 188 | 0.0 | 0.0 | 0.00 | 0.00 | 0.00 | 68 | 1012.5 |
| 20260904224800 | 32 | 188 | 0.0 | 0.0 | 0.00 | 0.00 | 0.00 | 67 | 1012.5 |
| 20260904224703 | 32 | 188 | 0.0 | 0.0 | 0.00 | 0.00 | 0.00 | 67 | 1012.4 |
| 20260904224601 | 32 | 188 | 0.0 | 0.0 | 0.00 | 0.00 | 0.00 | 67 | 1012.5 |
| 20260904224500 | 32 | 188 | 0.0 | 0.0 | 0.00 | 0.00 | 0.00 | 68 | 1012.5 |
| 20260904224401 | 33 | 188 | 0.0 | 0.0 | 0.00 | 0.00 | 0.00 | 68 | 1012.5 |
| 20260904224304 | 33 | 188 | 0.0 | 0.0 | 0.00 | 0.00 | 0.00 | 67 | 1012.6 |
| 20260904224201 | 33 | 188 | 0.0 | 0.0 | 0.00 | 0.00 | 0.00 | 67 | 1012.6 |
| 20260904224100 | 33 | 188 | 0.0 | 0.0 | 0.00 | 0.00 | 0.00 | 67 | 1012.6 |
| 20260904223900 | 33 | 188 | 0.0 | 0.0 | 0.00 | 0.00 | 0.00 | 66 | 1012.6 |
| 20260904223759 | 33 | 188 | 0.0 | 0.0 | 0.00 | 0.00 | 0.00 | 66 | 1012.5 |
| 20260904223700 | 33 | 188 | 0.0 | 0.0 | 0.00 | 0.00 | 0.00 | 66 | 1012.5 |
| 20260904223603 | 33 | 188 | 0.0 | 0.0 | 0.00 | 0.00 | 0.00 | 66 | 1012.6 |
| 20260904223500 | 33 | 188 | 0.0 | 0.0 | 0.00 | 0.00 | 0.00 | 66 | 1012.6 |
| 20260904223300 | 33 | 188 | 0.0 | 0.0 | 0.00 | 0.00 | 0.00 | 66 | 1012.5 |
| 20260904223100 | 33 | 188 | 0.0 | 0.0 | 0.00 | 0.00 | 0.00 | 66 | 1012.5 |
| 20260904223000 | 33 | 188 | 0.0 | 0.0 | 0.00 | 0.00 | 0.00 | 66 | 1012.5 |
| 20260904222900 | 33 | 188 | 0.0 | 0.0 | 0.00 | 0.00 | 0.00 | 65 | 1012.5 |
| 20260904222802 | 33 | 188 | 0.0 | 0.0 | 0.00 | 0.00 | 0.00 | 65 | 1012.5 |
| 20260904222701 | 33 | 188 | 0.0 | 0.0 | 0.00 | 0.00 | 0.00 | 65 | 1012.6 |
| 20260904222600 | 33 | 188 | 0.0 | 0.0 | 0.00 | 0.00 | 0.00 | 64 | 1012.5 |
| 20260904222500 | 33 | 188 | 0.0 | 0.0 | 0.00 | 0.00 | 0.00 | 64 | 1012.6 |
| 20260904222402 | 34 | 188 | 0.0 | 0.0 | 0.00 | 0.00 | 0.00 | 64 | 1012.6 |
| 20260904222259 | 34 | 188 | 0.0 | 0.0 | 0.00 | 0.00 | 0.00 | 64 | 1012.6 |
| 20260904222200 | 34 | 188 | 0.0 | 0.0 | 0.00 | 0.00 | 0.00 | 64 | 1012.6 |
| 20260904222100 | 34 | 188 | 0.0 | 0.0 | 0.00 | 0.00 | 0.00 | 64 | 1012.6 |
| 20260904222002 | 34 | 188 | 0.0 | 0.0 | 0.00 | 0.00 | 0.00 | 64 | 1012.6 |
| 20260904221900 | 34 | 188 | 0.0 | 0.0 | 0.00 | 0.00 | 0.00 | 64 | 1012.6 |
| 20260904221759 | 34 | 188 | 0.0 | 0.0 | 0.00 | 0.00 | 0.00 | 64 | 1012.6 |
| 20260904221700 | 34 | 188 | 0.0 | 0.0 | 0.00 | 0.00 | 0.00 | 64 | 1012.6 |
| 20260904221603 | 34 | 188 | 0.0 | 0.0 | 0.00 | 0.00 | 0.00 | 64 | 1012.6 |
| 20260904221500 | 34 | 188 | 0.0 | 0.0 | 0.00 | 0.00 | 0.00 | 63 | 1012.5 |
| 20260904221400 | 34 | 188 | 0.0 | 0.0 | 0.00 | 0.00 | 0.00 | 63 | 1012.5 |
| 20260904221301 | 34 | 188 | 0.0 | 0.0 | 0.00 | 0.00 | 0.00 | 63 | 1012.5 |
| 20260904221204 | 34 | 188 | 0.0 | 0.0 | 0.00 | 0.00 | 0.00 | 63 | 1012.6 |
| 20260904221101 | 34 | 188 | 0.0 | 0.0 | 0.00 | 0.00 | 0.00 | 63 | 1012.6 |
| 20260904220959 | 34 | 188 | 0.0 | 0.0 | 0.00 | 0.00 | 0.00 | 62 | 1012.5 |
| 20260904220900 | 34 | 188 | 0.0 | 0.0 | 0.00 | 0.00 | 0.00 | 63 | 1012.5 |
| 20260904220803 | 34 | 188 | 0.0 | 0.0 | 0.00 | 0.00 | 0.00 | 62 | 1012.5 |
| 20260904220701 | 34 | 188 | 0.0 | 0.0 | 0.00 | 0.00 | 0.00 | 63 | 1012.5 |
| 20260904220402 | 35 | 188 | 0.0 | 0.0 | 0.00 | 0.00 | 0.00 | 62 | 1012.5 |
| 20260904220301 | 35 | 188 | 0.0 | 0.0 | 0.00 | 0.00 | 0.00 | 62 | 1012.4 |
| 20260904220200 | 35 | 188 | 0.0 | 0.0 | 0.00 | 0.00 | 0.00 | 62 | 1012.5 |
| 20260904220100 | 35 | 188 | 0.0 | 0.0 | 0.00 | 0.00 | 0.00 | 62 | 1012.5 |
| 20260904220005 | 35 | 188 | 0.0 | 0.0 | 0.00 | 0.00 | 0.00 | 62 | 1012.5 |
| 20260904215901 | 35 | 188 | 0.0 | 0.0 | 0.00 | 0.00 | 0.00 | 62 | 1012.5 |
| 20260904215800 | 35 | 188 | 0.0 | 0.0 | 0.00 | 0.00 | 0.00 | 62 | 1012.6 |
| 20260904215701 | 35 | 188 | 0.0 | 0.0 | 0.00 | 0.00 | 0.00 | 62 | 1012.5 |
| 20260904215604 | 35 | 188 | 0.0 | 0.0 | 0.00 | 0.00 | 0.00 | 62 | 1012.6 |
| 20260904215500 | 35 | 188 | 0.0 | 0.0 | 0.00 | 0.00 | 0.00 | 62 | 1012.6 |
| 20260904215401 | 35 | 188 | 0.0 | 0.0 | 0.00 | 0.00 | 0.00 | 61 | 1012.6 |
| 20260904215300 | 35 | 188 | 0.0 | 0.0 | 0.00 | 0.00 | 0.00 | 61 | 1012.6 |
| 20260904215202 | 35 | 188 | 0.0 | 0.0 | 0.00 | 0.00 | 0.00 | 61 | 1012.5 |
| 20260904215000 | 35 | 188 | 0.0 | 0.0 | 0.00 | 0.00 | 0.00 | 61 | 1012.7 |
| 20260904214900 | 35 | 188 | 0.0 | 0.0 | 0.00 | 0.00 | 0.00 | 60 | 1012.6 |
| 20260904214700 | 35 | 188 | 0.0 | 0.0 | 0.00 | 0.00 | 0.00 | 60 | 1012.6 |
| 20260904214601 | 35 | 188 | 0.0 | 0.0 | 0.00 | 0.00 | 0.00 | 59 | 1012.6 |
| 20260904214500 | 35 | 188 | 0.0 | 0.0 | 0.00 | 0.00 | 0.00 | 59 | 1012.6 |
| 20260904214403 | 35 | 188 | 0.0 | 0.0 | 0.00 | 0.00 | 0.00 | 59 | 1012.6 |
| 20260904214300 | 35 | 188 | 0.0 | 0.0 | 0.00 | 0.00 | 0.00 | 59 | 1012.6 |
| 20260904214200 | 35 | 188 | 0.0 | 0.0 | 0.00 | 0.00 | 0.00 | 59 | 1012.7 |
| 20260904214100 | 35 | 188 | 0.0 | 0.0 | 0.00 | 0.00 | 0.00 | 59 | 1012.6 |
| 20260904214003 | 35 | 188 | 0.0 | 0.0 | 0.00 | 0.00 | 0.00 | 58 | 1012.7 |
| 20260904213900 | 35 | 188 | 0.0 | 0.0 | 0.00 | 0.00 | 0.00 | 59 | 1012.7 |
| 20260904213759 | 35 | 188 | 0.0 | 0.0 | 0.00 | 0.00 | 0.00 | 59 | 1012.7 |
| 20260904213602 | 35 | 188 | 0.0 | 0.0 | 0.00 | 0.00 | 0.00 | 60 | 1012.8 |
| 20260904213500 | 35 | 188 | 0.0 | 0.0 | 0.00 | 0.00 | 0.00 | 60 | 1012.8 |
| 20260904213401 | 35 | 188 | 0.0 | 0.0 | 0.00 | 0.00 | 0.00 | 59 | 1012.8 |
| 20260904213300 | 35 | 188 | 0.0 | 0.0 | 0.00 | 0.00 | 0.00 | 59 | 1012.9 |
| 20260904213203 | 35 | 188 | 0.0 | 0.0 | 0.00 | 0.00 | 0.00 | 59 | 1012.8 |
| 20260904213101 | 35 | 188 | 0.0 | 0.0 | 0.00 | 0.00 | 0.00 | 59 | 1012.8 |
| 20260904213000 | 35 | 188 | 0.0 | 0.0 | 0.00 | 0.00 | 0.00 | 59 | 1012.8 |
| 20260904212900 | 35 | 188 | 0.0 | 0.0 | 0.00 | 0.00 | 0.00 | 59 | 1012.8 |
| 20260904212802 | 35 | 188 | 0.0 | 0.0 | 0.00 | 0.00 | 0.00 | 58 | 1012.7 |
| 20260904212700 | 35 | 188 | 0.0 | 0.0 | 0.00 | 0.00 | 0.00 | 58 | 1012.8 |
| 20260904212600 | 35 | 188 | 0.0 | 0.0 | 0.00 | 0.00 | 0.00 | 57 | 1012.8 |
| 20260904212500 | 35 | 188 | 0.0 | 0.0 | 0.00 | 0.00 | 0.00 | 59 | 1012.8 |
| 20260904212300 | 35 | 188 | 0.0 | 0.0 | 0.00 | 0.00 | 0.00 | 59 | 1012.9 |
| 20260904212201 | 36 | 188 | 0.0 | 0.0 | 0.00 | 0.00 | 0.00 | 59 | 1012.9 |
| 20260904212100 | 36 | 188 | 0.0 | 0.0 | 0.00 | 0.00 | 0.00 | 58 | 1012.9 |
| 20260904212002 | 36 | 188 | 0.0 | 0.0 | 0.00 | 0.00 | 0.00 | 58 | 1012.8 |
| 20260904211901 | 36 | 188 | 0.0 | 0.0 | 0.00 | 0.00 | 0.00 | 58 | 1013.0 |
| 20260904211800 | 36 | 188 | 0.0 | 0.0 | 0.00 | 0.00 | 0.00 | 58 | 1013.0 |
| 20260904211700 | 35 | 188 | 0.0 | 0.0 | 0.00 | 0.00 | 0.00 | 59 | 1012.8 |
| 20260904211603 | 35 | 188 | 0.0 | 0.0 | 0.00 | 0.00 | 0.00 | 60 | 1013.1 |
| 20260904211500 | 35 | 188 | 0.0 | 0.0 | 0.00 | 0.00 | 0.00 | 61 | 1012.9 |
| 20260904211300 | 35 | 188 | 0.0 | 0.0 | 0.00 | 0.00 | 0.00 | 59 | 1012.9 |
| 20260904211202 | 35 | 188 | 0.0 | 0.0 | 0.00 | 0.00 | 0.00 | 59 | 1012.9 |
| 20260904211100 | 35 | 188 | 0.0 | 0.0 | 0.00 | 0.00 | 0.00 | 59 | 1012.9 |
| 20260904210859 | 35 | 188 | 0.0 | 0.0 | 0.00 | 0.00 | 0.00 | 61 | 1013.0 |
| 20260904210802 | 35 | 188 | 0.0 | 0.0 | 0.00 | 0.00 | 0.00 | 60 | 1012.9 |
| 20260904210600 | 35 | 188 | 0.0 | 0.0 | 0.00 | 0.00 | 0.00 | 61 | 1013.2 |
| 20260904210501 | 35 | 188 | 0.0 | 0.0 | 0.00 | 0.00 | 0.00 | 60 | 1013.1 |
| 20260904210403 | 35 | 188 | 0.0 | 0.0 | 0.00 | 0.00 | 0.00 | 60 | 1013.2 |
| 20260904210259 | 35 | 188 | 0.0 | 0.0 | 0.00 | 0.00 | 0.00 | 60 | 1013.2 |
| 20260904210201 | 35 | 188 | 0.0 | 0.0 | 0.00 | 0.00 | 0.00 | 60 | 1013.2 |
| 20260904210100 | 35 | 188 | 0.0 | 0.0 | 0.00 | 0.00 | 0.00 | 60 | 1013.2 |
| 20260904210004 | 35 | 188 | 0.0 | 0.0 | 0.00 | 0.00 | 0.00 | 59 | 1013.2 |
| 20260904205900 | 35 | 188 | 0.0 | 0.0 | 0.00 | 0.00 | 0.00 | 59 | 1013.2 |
| 20260904205800 | 35 | 188 | 0.0 | 0.0 | 0.00 | 0.00 | 0.00 | 59 | 1013.2 |
| 20260904205600 | 35 | 188 | 0.0 | 0.0 | 0.00 | 0.00 | 0.00 | 60 | 1013.2 |
| 20260904205500 | 35 | 187 | 0.0 | 0.0 | 0.00 | 0.00 | 0.00 | 60 | 1013.2 |
| 20260904205400 | 35 | 187 | 0.0 | 0.0 | 0.00 | 0.00 | 0.00 | 60 | 1013.2 |
| 20260904205305 | 35 | 187 | 0.0 | 0.0 | 0.00 | 0.00 | 0.00 | 59 | 1013.2 |
| 20260904205200 | 35 | 187 | 0.0 | 0.0 | 0.00 | 0.00 | 0.00 | 59 | 1013.2 |
| 20260904205059 | 35 | 188 | 0.0 | 0.0 | 0.00 | 0.00 | 0.00 | 60 | 1013.2 |
| 20260904205000 | 35 | 188 | 0.0 | 0.0 | 0.00 | 0.00 | 0.00 | 60 | 1013.1 |
| 20260904204902 | 35 | 187 | 0.0 | 0.0 | 0.00 | 0.00 | 0.00 | 59 | 1013.2 |
| 20260904204801 | 35 | 187 | 0.0 | 0.0 | 0.00 | 0.00 | 0.00 | 60 | 1013.2 |
| 20260904204700 | 35 | 187 | 0.0 | 0.0 | 0.00 | 0.00 | 0.00 | 59 | 1013.2 |
| 20260904204601 | 35 | 187 | 0.0 | 0.0 | 0.00 | 0.00 | 0.00 | 60 | 1013.2 |
| 20260904204503 | 35 | 187 | 0.0 | 0.0 | 0.00 | 0.00 | 0.00 | 60 | 1013.2 |
| 20260904204401 | 35 | 187 | 0.0 | 0.0 | 0.00 | 0.00 | 0.00 | 60 | 1013.2 |
| 20260904204300 | 35 | 187 | 0.0 | 0.0 | 0.00 | 0.00 | 0.00 | 59 | 1013.3 |
| 20260904204159 | 35 | 188 | 0.0 | 0.0 | 0.00 | 0.00 | 0.00 | 60 | 1013.2 |
| 20260904204102 | 35 | 188 | 0.0 | 0.0 | 0.00 | 0.00 | 0.00 | 60 | 1013.3 |
| 20260904203900 | 35 | 188 | 0.0 | 0.0 | 0.00 | 0.00 | 0.00 | 60 | 1013.3 |
| 20260904203800 | 35 | 188 | 0.0 | 0.0 | 0.00 | 0.00 | 0.00 | 60 | 1013.3 |
| 20260904203702 | 35 | 188 | 0.0 | 0.0 | 0.00 | 0.00 | 0.00 | 59 | 1013.3 |
| 20260904203500 | 36 | 186 | 0.0 | 0.0 | 0.00 | 0.00 | 0.00 | 59 | 1013.4 |
| 20260904203400 | 36 | 186 | 0.0 | 0.0 | 0.00 | 0.00 | 0.00 | 59 | 1013.4 |
| 20260904203303 | 36 | 186 | 0.0 | 0.0 | 0.00 | 0.00 | 0.00 | 59 | 1013.4 |
| 20260904203200 | 36 | 186 | 0.0 | 0.0 | 0.00 | 0.00 | 0.00 | 61 | 1013.4 |
| 20260904203100 | 36 | 186 | 0.0 | 0.0 | 0.00 | 0.00 | 0.00 | 60 | 1013.4 |
| 20260904202959 | 36 | 186 | 0.0 | 0.0 | 0.00 | 0.00 | 0.00 | 58 | 1013.5 |
| 20260904202902 | 36 | 186 | 0.0 | 0.0 | 0.00 | 0.00 | 0.00 | 57 | 1013.4 |
| 20260904202800 | 36 | 184 | 0.0 | 0.0 | 0.00 | 0.00 | 0.00 | 57 | 1013.5 |
| 20260904202700 | 36 | 184 | 0.0 | 0.0 | 0.00 | 0.00 | 0.00 | 57 | 1013.4 |
| 20260904202600 | 36 | 184 | 0.0 | 0.0 | 0.00 | 0.00 | 0.00 | 57 | 1013.5 |
| 20260904202503 | 36 | 184 | 0.0 | 0.0 | 0.00 | 0.00 | 0.00 | 58 | 1013.5 |
| 20260904202400 | 36 | 184 | 0.0 | 0.0 | 0.00 | 0.00 | 0.00 | 56 | 1013.5 |
| 20260904202301 | 36 | 184 | 0.0 | 0.0 | 0.00 | 0.00 | 0.00 | 56 | 1013.5 |
| 20260904202200 | 36 | 184 | 0.0 | 0.0 | 0.00 | 0.00 | 0.00 | 56 | 1013.5 |
| 20260904202002 | 36 | 184 | 0.0 | 0.0 | 0.00 | 0.00 | 0.00 | 56 | 1013.5 |
| 20260904201859 | 36 | 184 | 0.0 | 0.0 | 0.00 | 0.00 | 0.00 | 56 | 1013.5 |
| 20260904201800 | 36 | 184 | 0.0 | 0.0 | 0.00 | 0.00 | 0.00 | 55 | 1013.6 |
| 20260904201703 | 36 | 184 | 0.0 | 0.0 | 0.00 | 0.00 | 0.00 | 55 | 1013.6 |
| 20260904201601 | 36 | 184 | 0.0 | 0.0 | 0.00 | 0.00 | 0.00 | 54 | 1013.6 |
| 20260904201500 | 36 | 253 | 0.0 | 0.0 | 0.00 | 0.00 | 0.00 | 54 | 1013.6 |
| 20260904201400 | 36 | 254 | 0.0 | 0.0 | 0.00 | 0.00 | 0.00 | 56 | 1013.6 |
| 20260904201304 | 36 | 254 | 0.0 | 0.0 | 0.00 | 0.00 | 0.00 | 56 | 1013.6 |
| 20260904201200 | 36 | 254 | 0.0 | 0.0 | 0.00 | 0.00 | 0.00 | 58 | 1013.6 |
| 20260904201100 | 36 | 254 | 0.0 | 0.0 | 0.00 | 0.00 | 0.00 | 59 | 1013.6 |
| 20260904201000 | 36 | 254 | 0.0 | 0.0 | 0.00 | 0.00 | 0.00 | 57 | 1013.6 |
| 20260904200903 | 36 | 253 | 0.0 | 0.0 | 0.00 | 0.00 | 0.00 | 57 | 1013.6 |
| 20260904200800 | 36 | 253 | 0.0 | 0.0 | 0.00 | 0.00 | 0.00 | 57 | 1013.6 |
| 20260904200702 | 36 | 253 | 0.0 | 0.0 | 0.00 | 0.00 | 0.00 | 58 | 1013.6 |
| 20260904200600 | 36 | 253 | 0.0 | 0.0 | 0.00 | 0.00 | 0.00 | 59 | 1013.7 |
| 20260904200502 | 36 | 253 | 0.0 | 0.0 | 0.00 | 0.00 | 0.00 | 60 | 1013.7 |
| 20260904200400 | 36 | 254 | 0.0 | 0.0 | 0.00 | 0.00 | 0.00 | 61 | 1013.7 |
| 20260904200300 | 36 | 254 | 0.0 | 0.0 | 0.00 | 0.00 | 0.00 | 60 | 1013.7 |
| 20260904200200 | 36 | 254 | 0.0 | 0.0 | 0.00 | 0.00 | 0.00 | 59 | 1013.7 |
| 20260904200002 | 36 | 301 | 0.0 | 0.0 | 0.00 | 0.00 | 0.00 | 61 | 1013.7 |
| 20260904195900 | 35 | 301 | 0.0 | 3.2 | 0.00 | 0.00 | 0.00 | 59 | 1013.7 |
| 20260904195801 | 35 | 301 | 0.0 | 3.2 | 0.00 | 0.00 | 0.00 | 58 | 1013.8 |
| 20260904195700 | 35 | 301 | 0.0 | 3.2 | 0.00 | 0.00 | 0.00 | 58 | 1013.7 |
| 20260904195600 | 35 | 301 | 0.0 | 3.2 | 0.00 | 0.00 | 0.00 | 59 | 1013.8 |
| 20260904195500 | 35 | 301 | 0.0 | 3.2 | 0.00 | 0.00 | 0.00 | 58 | 1013.8 |
| 20260904195402 | 35 | 319 | 0.0 | 3.2 | 0.00 | 0.00 | 0.00 | 58 | 1013.8 |
| 20260904195201 | 35 | 246 | 0.0 | 3.2 | 0.00 | 0.00 | 0.00 | 58 | 1013.9 |
| 20260904195100 | 35 | 266 | 0.0 | 0.0 | 0.00 | 0.00 | 0.00 | 58 | 1013.9 |
| 20260904195002 | 35 | 266 | 0.0 | 0.0 | 0.00 | 0.00 | 0.00 | 58 | 1013.9 |
| 20260904194900 | 35 | 266 | 0.0 | 0.0 | 0.00 | 0.00 | 0.00 | 59 | 1013.9 |
| 20260904194604 | 35 | 266 | 0.0 | 0.0 | 0.00 | 0.00 | 0.00 | 61 | 1014.0 |
| 20260904194500 | 35 | 266 | 0.0 | 0.0 | 0.00 | 0.00 | 0.00 | 63 | 1014.0 |
| 20260904194300 | 35 | 266 | 0.0 | 0.0 | 0.00 | 0.00 | 0.00 | 58 | 1014.0 |
| 20260904194203 | 35 | 265 | 0.0 | 0.0 | 0.00 | 0.00 | 0.00 | 57 | 1014.1 |
| 20260904194100 | 35 | 265 | 0.0 | 0.0 | 0.00 | 0.00 | 0.00 | 59 | 1014.1 |
| 20260904193802 | 35 | 236 | 0.0 | 0.0 | 0.00 | 0.00 | 0.00 | 60 | 1014.2 |
| 20260904193700 | 35 | 236 | 0.0 | 0.0 | 0.00 | 0.00 | 0.00 | 59 | 1014.2 |
| 20260904193600 | 35 | 236 | 0.0 | 8.0 | 0.00 | 0.00 | 0.00 | 59 | 1014.2 |
| 20260904193501 | 35 | 236 | 0.0 | 8.0 | 0.00 | 0.00 | 0.00 | 60 | 1014.2 |
| 20260904193100 | 35 | 236 | 0.0 | 8.0 | 0.00 | 0.00 | 0.00 | 61 | 1014.3 |
| 20260904193002 | 35 | 236 | 0.0 | 8.0 | 0.00 | 0.00 | 0.00 | 62 | 1014.3 |
| 20260904192900 | 35 | 236 | 0.0 | 8.0 | 0.00 | 0.00 | 0.00 | 60 | 1014.3 |
| 20260904192800 | 35 | 236 | 0.0 | 8.0 | 0.00 | 0.00 | 0.00 | 60 | 1014.4 |
| 20260904192700 | 35 | 268 | 0.0 | 4.8 | 0.00 | 0.00 | 0.00 | 60 | 1014.4 |
| 20260904192602 | 35 | 224 | 0.0 | 3.2 | 0.00 | 0.00 | 0.00 | 64 | 1014.5 |
| 20260904192401 | 34 | 259 | 0.0 | 0.0 | 0.00 | 0.00 | 0.00 | 63 | 1014.5 |
| 20260904192204 | 34 | 251 | 0.0 | 0.0 | 0.00 | 0.00 | 0.00 | 62 | 1014.6 |
| 20260904192059 | 34 | 251 | 0.0 | 1.6 | 0.00 | 0.00 | 0.00 | 63 | 1014.5 |
| 20260904192000 | 34 | 251 | 0.0 | 1.6 | 0.00 | 0.00 | 0.00 | 61 | 1014.5 |
| 20260904191900 | 34 | 252 | 0.0 | 1.6 | 0.00 | 0.00 | 0.00 | 62 | 1014.6 |
| 20260904191802 | 34 | 249 | 0.0 | 1.6 | 0.00 | 0.00 | 0.00 | 62 | 1014.5 |
| 20260904191702 | 34 | 249 | 0.0 | 6.4 | 0.00 | 0.00 | 0.00 | 62 | 1014.6 |
| 20260904191500 | 34 | 249 | 0.0 | 6.4 | 0.00 | 0.00 | 0.00 | 61 | 1014.5 |
| 20260904191404 | 34 | 278 | 0.0 | 6.4 | 0.00 | 0.00 | 0.00 | 61 | 1014.6 |
| 20260904191300 | 34 | 278 | 0.0 | 6.4 | 0.00 | 0.00 | 0.00 | 63 | 1014.7 |
| 20260904191200 | 34 | 242 | 0.0 | 6.4 | 0.00 | 0.00 | 0.00 | 61 | 1014.7 |
| 20260904191059 | 34 | 242 | 0.0 | 6.4 | 0.00 | 0.00 | 0.00 | 63 | 1014.7 |
| 20260904191002 | 34 | 242 | 0.0 | 6.4 | 0.00 | 0.00 | 0.00 | 63 | 1014.7 |
| 20260904190900 | 34 | 242 | 0.0 | 6.4 | 0.00 | 0.00 | 0.00 | 59 | 1014.7 |
| 20260904190759 | 34 | 239 | 0.0 | 0.0 | 0.00 | 0.00 | 0.00 | 60 | 1014.7 |
| 20260904190700 | 34 | 240 | 0.0 | 0.0 | 0.00 | 0.00 | 0.00 | 61 | 1014.8 |
| 20260904190602 | 34 | 240 | 0.0 | 0.0 | 0.00 | 0.00 | 0.00 | 63 | 1014.8 |
| 20260904190502 | 34 | 240 | 0.0 | 0.0 | 0.00 | 0.00 | 0.00 | 64 | 1014.8 |
| 20260904190400 | 34 | 240 | 0.0 | 0.0 | 0.00 | 0.00 | 0.00 | 64 | 1014.8 |
| 20260904190300 | 34 | 240 | 0.0 | 0.0 | 0.00 | 0.00 | 0.00 | 64 | 1014.7 |
| 20260904190205 | 34 | 240 | 0.0 | 0.0 | 0.00 | 0.00 | 0.00 | 63 | 1014.8 |
| 20260904190100 | 34 | 240 | 0.0 | 0.0 | 0.00 | 0.00 | 0.00 | 63 | 1014.7 |
| 20260904190003 | 34 | 240 | 0.0 | 0.0 | 0.00 | 0.00 | 0.00 | 64 | 1014.8 |
| 20260904185902 | 34 | 240 | 0.0 | 0.0 | 0.00 | 0.00 | 0.00 | 63 | 1014.8 |
| 20260904185800 | 34 | 240 | 0.0 | 0.0 | 0.00 | 0.00 | 0.00 | 63 | 1014.8 |
| 20260904185700 | 34 | 240 | 0.0 | 0.0 | 0.00 | 0.00 | 0.00 | 63 | 1014.8 |
| 20260904185600 | 34 | 240 | 0.0 | 0.0 | 0.00 | 0.00 | 0.00 | 63 | 1014.8 |
| 20260904185503 | 34 | 240 | 0.0 | 0.0 | 0.00 | 0.00 | 0.00 | 62 | 1014.8 |
| 20260904185400 | 34 | 240 | 0.0 | 0.0 | 0.00 | 0.00 | 0.00 | 62 | 1014.9 |
| 20260904185300 | 34 | 240 | 0.0 | 0.0 | 0.00 | 0.00 | 0.00 | 62 | 1014.8 |
| 20260904185200 | 34 | 240 | 0.0 | 0.0 | 0.00 | 0.00 | 0.00 | 62 | 1014.8 |
| 20260904185000 | 34 | 240 | 0.0 | 0.0 | 0.00 | 0.00 | 0.00 | 60 | 1014.8 |
| 20260904184800 | 34 | 240 | 0.0 | 6.4 | 0.00 | 0.00 | 0.00 | 59 | 1014.9 |
| 20260904184702 | 34 | 239 | 0.0 | 6.4 | 0.00 | 0.00 | 0.00 | 59 | 1014.9 |
| 20260904184601 | 34 | 238 | 0.0 | 6.4 | 0.00 | 0.00 | 0.00 | 60 | 1014.8 |
| 20260904184500 | 34 | 251 | 0.0 | 6.4 | 0.00 | 0.00 | 0.00 | 60 | 1014.8 |
| 20260904184401 | 34 | 251 | 0.0 | 6.4 | 0.00 | 0.00 | 0.00 | 60 | 1014.9 |
| 20260904184302 | 34 | 251 | 0.0 | 6.4 | 0.00 | 0.00 | 0.00 | 61 | 1014.8 |
| 20260904184100 | 34 | 238 | 0.0 | 6.4 | 0.00 | 0.00 | 0.00 | 61 | 1014.9 |
| 20260904183903 | 35 | 257 | 0.0 | 4.8 | 0.00 | 0.00 | 0.00 | 62 | 1014.9 |
| 20260904183800 | 35 | 257 | 0.0 | 6.4 | 0.00 | 0.00 | 0.00 | 64 | 1015.0 |
| 20260904183700 | 35 | 257 | 0.0 | 6.4 | 0.00 | 0.00 | 0.00 | 64 | 1014.9 |
| 20260904183603 | 35 | 256 | 0.0 | 6.4 | 0.00 | 0.00 | 0.00 | 64 | 1015.0 |
| 20260904183500 | 35 | 259 | 0.0 | 6.4 | 0.00 | 0.00 | 0.00 | 62 | 1015.0 |
| 20260904183400 | 35 | 259 | 0.0 | 6.4 | 0.00 | 0.00 | 0.00 | 62 | 1014.9 |
| 20260904183300 | 35 | 256 | 0.0 | 6.4 | 0.00 | 0.00 | 0.00 | 60 | 1015.0 |
| 20260904183202 | 35 | 247 | 0.0 | 6.4 | 0.00 | 0.00 | 0.00 | 59 | 1014.9 |
| 20260904183101 | 35 | 246 | 0.0 | 6.4 | 0.00 | 0.00 | 0.00 | 59 | 1015.0 |
| 20260904183000 | 35 | 246 | 0.0 | 6.4 | 0.00 | 0.00 | 0.00 | 60 | 1015.0 |
| 20260904182901 | 35 | 251 | 0.0 | 6.4 | 0.00 | 0.00 | 0.00 | 62 | 1015.0 |
| 20260904182803 | 35 | 286 | 0.0 | 0.0 | 0.00 | 0.00 | 0.00 | 62 | 1015.1 |
| 20260904182700 | 35 | 286 | 0.0 | 0.0 | 0.00 | 0.00 | 0.00 | 63 | 1015.1 |
| 20260904182601 | 35 | 261 | 0.0 | 0.0 | 0.00 | 0.00 | 0.00 | 62 | 1015.1 |
| 20260904182500 | 35 | 261 | 0.0 | 0.0 | 0.00 | 0.00 | 0.00 | 64 | 1015.1 |
| 20260904182402 | 35 | 261 | 0.0 | 0.0 | 0.00 | 0.00 | 0.00 | 63 | 1015.2 |
| 20260904182300 | 35 | 261 | 0.0 | 1.6 | 0.00 | 0.00 | 0.00 | 64 | 1015.2 |
| 20260904182200 | 35 | 260 | 0.0 | 1.6 | 0.00 | 0.00 | 0.00 | 66 | 1015.1 |
| 20260904182100 | 35 | 259 | 0.0 | 1.6 | 0.00 | 0.00 | 0.00 | 64 | 1015.1 |
| 20260904182002 | 35 | 259 | 0.0 | 1.6 | 0.00 | 0.00 | 0.00 | 63 | 1015.2 |
| 20260904181900 | 35 | 259 | 0.0 | 1.6 | 0.00 | 0.00 | 0.00 | 63 | 1015.2 |
| 20260904181800 | 35 | 259 | 0.0 | 1.6 | 0.00 | 0.00 | 0.00 | 62 | 1015.2 |
| 20260904181700 | 35 | 259 | 0.0 | 1.6 | 0.00 | 0.00 | 0.00 | 61 | 1015.2 |
| 20260904181602 | 35 | 259 | 0.0 | 1.6 | 0.00 | 0.00 | 0.00 | 62 | 1015.2 |
| 20260904181500 | 35 | 259 | 0.0 | 1.6 | 0.00 | 0.00 | 0.00 | 61 | 1015.2 |
| 20260904181300 | 35 | 252 | 0.0 | 1.6 | 0.00 | 0.00 | 0.00 | 62 | 1015.2 |
| 20260904181202 | 35 | 252 | 0.0 | 1.6 | 0.00 | 0.00 | 0.00 | 61 | 1015.2 |
| 20260904181100 | 35 | 134 | 0.0 | 1.6 | 0.00 | 0.00 | 0.00 | 61 | 1015.2 |
| 20260904181000 | 35 | 147 | 0.0 | 1.6 | 0.00 | 0.00 | 0.00 | 62 | 1015.2 |
| 20260904180900 | 35 | 147 | 0.0 | 1.6 | 0.00 | 0.00 | 0.00 | 60 | 1015.3 |
| 20260904180803 | 35 | 251 | 0.0 | 0.0 | 0.00 | 0.00 | 0.00 | 62 | 1015.2 |
| 20260904180700 | 35 | 251 | 0.0 | 0.0 | 0.00 | 0.00 | 0.00 | 61 | 1015.3 |
| 20260904180600 | 35 | 251 | 0.0 | 0.0 | 0.00 | 0.00 | 0.00 | 62 | 1015.3 |
| 20260904180503 | 35 | 251 | 0.0 | 0.0 | 0.00 | 0.00 | 0.00 | 61 | 1015.3 |
| 20260904180300 | 35 | 251 | 0.0 | 0.0 | 0.00 | 0.00 | 0.00 | 62 | 1015.3 |
| 20260904180200 | 35 | 251 | 0.0 | 0.0 | 0.00 | 0.00 | 0.00 | 62 | 1015.3 |
| 20260904180003 | 35 | 251 | 0.0 | 0.0 | 0.00 | 0.00 | 0.00 | 62 | 1015.4 |
| 20260904175900 | 35 | 251 | 0.0 | 0.0 | 0.00 | 0.00 | 0.00 | 62 | 1015.3 |
| 20260904175802 | 35 | 251 | 0.0 | 0.0 | 0.00 | 0.00 | 0.00 | 61 | 1015.4 |
| 20260904175700 | 35 | 251 | 0.0 | 0.0 | 0.00 | 0.00 | 0.00 | 61 | 1015.4 |
| 20260904175601 | 35 | 251 | 0.0 | 0.0 | 0.00 | 0.00 | 0.00 | 60 | 1015.3 |
| 20260904175500 | 35 | 250 | 0.0 | 0.0 | 0.00 | 0.00 | 0.00 | 60 | 1015.4 |
| 20260904175300 | 35 | 251 | 0.0 | 0.0 | 0.00 | 0.00 | 0.00 | 62 | 1015.4 |
| 20260904175159 | 35 | 251 | 0.0 | 3.2 | 0.00 | 0.00 | 0.00 | 60 | 1015.4 |
| 20260904175100 | 35 | 251 | 0.0 | 3.2 | 0.00 | 0.00 | 0.00 | 60 | 1015.4 |
| 20260904175002 | 35 | 251 | 0.0 | 3.2 | 0.00 | 0.00 | 0.00 | 60 | 1015.4 |
| 20260904174801 | 35 | 251 | 0.0 | 3.2 | 0.00 | 0.00 | 0.00 | 64 | 1015.5 |
| 20260904174602 | 35 | 251 | 0.0 | 3.2 | 0.00 | 0.00 | 0.00 | 62 | 1015.5 |
| 20260904174500 | 35 | 251 | 0.0 | 4.8 | 0.00 | 0.00 | 0.00 | 61 | 1015.5 |
| 20260904174400 | 35 | 251 | 0.0 | 4.8 | 0.00 | 0.00 | 0.00 | 61 | 1015.6 |
| 20260904174300 | 35 | 234 | 0.0 | 4.8 | 0.00 | 0.00 | 0.00 | 62 | 1015.5 |
| 20260904174202 | 35 | 215 | 0.0 | 4.8 | 0.00 | 0.00 | 0.00 | 62 | 1015.5 |
| 20260904174000 | 35 | 215 | 0.0 | 4.8 | 0.00 | 0.00 | 0.00 | 62 | 1015.6 |
| 20260904173900 | 35 | 215 | 0.0 | 9.7 | 0.00 | 0.00 | 0.00 | 63 | 1015.6 |
| 20260904173802 | 35 | 215 | 0.0 | 9.7 | 0.00 | 0.00 | 0.00 | 62 | 1015.6 |
| 20260904173700 | 35 | 215 | 0.0 | 9.7 | 0.00 | 0.00 | 0.00 | 61 | 1015.6 |
| 20260904173500 | 35 | 242 | 0.0 | 9.7 | 0.00 | 0.00 | 0.00 | 62 | 1015.6 |
| 20260904173403 | 35 | 236 | 0.0 | 9.7 | 0.00 | 0.00 | 0.00 | 60 | 1015.6 |
| 20260904173300 | 35 | 236 | 0.0 | 9.7 | 0.00 | 0.00 | 0.00 | 60 | 1015.7 |
| 20260904173201 | 35 | 228 | 0.0 | 9.7 | 0.00 | 0.00 | 0.00 | 60 | 1015.6 |